Observation data for Coyanosa on 11/09/2019      Previous  Date       Current Mesonet Observations  Soil Data  Daily Summary Page  Observations in Plain Language
KCO1 090600Z 10004KT 07/06 A3033 RMK A01 T00670057  RH  093%=      5-min Rain = 0
KCO1 090601Z 10005KT 07/06 A3033 RMK A01 T00670057  RH  093%=      5-min Rain = 0
KCO1 090602Z 10004KT 07/06 A3033 RMK A01 T00670057  RH  093%=      5-min Rain = 0
KCO1 090603Z 11005KT 07/06 A3033 RMK A01 T00670057  RH  093%=      5-min Rain = 0
KCO1 090604Z 11005KT 07/06 A3033 RMK A01 T00670057  RH  093%=      5-min Rain = 0
KCO1 090605Z 11005KT 07/06 A3033 RMK A01 T00660056  RH  093%=      5-min Rain = 0
KCO1 090606Z 11005KT 07/06 A3033 RMK A01 T00660056  RH  093%=      5-min Rain = 0
KCO1 090607Z 11005KT 07/06 A3032 RMK A01 T00660056  RH  094%=      5-min Rain = 0
KCO1 090608Z 11005KT 07/06 A3032 RMK A01 T00660056  RH  094%=      5-min Rain = 0
KCO1 090609Z 11005KT 07/06 A3032 RMK A01 T00650056  RH  094%=      5-min Rain = 0
KCO1 090610Z 11005KT 07/06 A3032 RMK A01 T00650056  RH  094%=      5-min Rain = 0
KCO1 090611Z 11005KT 07/06 A3032 RMK A01 T00650056  RH  094%=      5-min Rain = 0
KCO1 090612Z 11004KT 07/06 A3032 RMK A01 T00650056  RH  094%=      5-min Rain = 0
KCO1 090613Z 11004KT 07/06 A3032 RMK A01 T00650056  RH  094%=      5-min Rain = 0
KCO1 090614Z 11004KT 07/06 A3032 RMK A01 T00650055  RH  094%=      5-min Rain = 0
KCO1 090615Z 11004KT 06/06 A3032 RMK A01 T00640055  RH  094%=      5-min Rain = 0
KCO1 090616Z 11004KT 06/06 A3032 RMK A01 T00640055  RH  094%=      5-min Rain = 0
KCO1 090617Z 11004KT 06/06 A3032 RMK A01 T00640055  RH  094%=      5-min Rain = 0
KCO1 090618Z 11003KT 06/06 A3032 RMK A01 T00640055  RH  094%=      5-min Rain = 0
KCO1 090619Z 11004KT 06/06 A3032 RMK A01 T00640055  RH  094%=      5-min Rain = 0
KCO1 090620Z 10004KT 06/06 A3032 RMK A01 T00630055  RH  094%=      5-min Rain = 0
KCO1 090621Z 10004KT 06/06 A3032 RMK A01 T00630055  RH  094%=      5-min Rain = 0
KCO1 090622Z 10004KT 06/05 A3032 RMK A01 T00630054  RH  094%=      5-min Rain = 0
KCO1 090623Z 10004KT 06/05 A3032 RMK A01 T00630054  RH  094%=      5-min Rain = 0
KCO1 090624Z 11004KT 06/05 A3032 RMK A01 T00620054  RH  094%=      5-min Rain = 0
KCO1 090625Z 11004KT 06/05 A3032 RMK A01 T00620053  RH  094%=      5-min Rain = 0
KCO1 090626Z 12004KT 06/05 A3032 RMK A01 T00620053  RH  094%=      5-min Rain = 0
KCO1 090627Z 12003KT 06/05 A3032 RMK A01 T00620053  RH  094%=      5-min Rain = 0
KCO1 090628Z 12003KT 06/05 A3032 RMK A01 T00610053  RH  094%=      5-min Rain = 0
KCO1 090629Z 11004KT 06/05 A3032 RMK A01 T00610053  RH  094%=      5-min Rain = 0
KCO1 090630Z 11004KT 06/05 A3032 RMK A01 T00610053  RH  095%=      5-min Rain = 0
KCO1 090631Z 11004KT 06/05 A3032 RMK A01 T00610053  RH  095%=      5-min Rain = 0
KCO1 090632Z 11004KT 06/05 A3032 RMK A01 T00610053  RH  095%=      5-min Rain = 0
KCO1 090633Z 12004KT 06/05 A3032 RMK A01 T00610053  RH  095%=      5-min Rain = 0
KCO1 090634Z 12004KT 06/05 A3032 RMK A01 T00600053  RH  095%=      5-min Rain = 0
KCO1 090635Z 12004KT 06/05 A3032 RMK A01 T00600052  RH  095%=      5-min Rain = 0
KCO1 090636Z 13004KT 06/05 A3032 RMK A01 T00600052  RH  095%=      5-min Rain = 0
KCO1 090637Z 12004KT 06/05 A3031 RMK A01 T00600052  RH  095%=      5-min Rain = 0
KCO1 090638Z 12004KT 06/05 A3031 RMK A01 T00600052  RH  095%=      5-min Rain = 0
KCO1 090639Z 12004KT 06/05 A3031 RMK A01 T00600052  RH  095%=      5-min Rain = 0
KCO1 090640Z 13004KT 06/05 A3031 RMK A01 T00590052  RH  095%=      5-min Rain = 0
KCO1 090641Z 13004KT 06/05 A3031 RMK A01 T00590052  RH  095%=      5-min Rain = 0
KCO1 090642Z 13004KT 06/05 A3031 RMK A01 T00590052  RH  095%=      5-min Rain = 0
KCO1 090643Z 13004KT 06/05 A3031 RMK A01 T00590052  RH  095%=      5-min Rain = 0
KCO1 090644Z 13004KT 06/05 A3031 RMK A01 T00590052  RH  095%=      5-min Rain = 0
KCO1 090645Z 13004KT 06/05 A3031 RMK A01 T00590052  RH  095%=      5-min Rain = 0
KCO1 090646Z 14005KT 06/05 A3031 RMK A01 T00590052  RH  095%=      5-min Rain = 0
KCO1 090647Z 14004KT 06/05 A3031 RMK A01 T00590052  RH  095%=      5-min Rain = 0
KCO1 090648Z 14004KT 06/05 A3031 RMK A01 T00590052  RH  095%=      5-min Rain = 0
KCO1 090649Z 14004KT 06/05 A3031 RMK A01 T00590053  RH  096%=      5-min Rain = 0
KCO1 090650Z 14004KT 06/05 A3031 RMK A01 T00590053  RH  096%=      5-min Rain = 0
KCO1 090651Z 13004KT 06/05 A3031 RMK A01 T00600053  RH  096%=      5-min Rain = 0
KCO1 090652Z 13004KT 06/05 A3031 RMK A01 T00600053  RH  096%=      5-min Rain = 0
KCO1 090653Z 13004KT 06/05 A3031 RMK A01 T00600053  RH  096%=      5-min Rain = 0
KCO1 090654Z 14005KT 06/05 A3031 RMK A01 T00600054  RH  096%=      5-min Rain = 0
KCO1 090655Z 14005KT 06/05 A3031 RMK A01 T00600054  RH  096%=      5-min Rain = 0
KCO1 090656Z 14005KT 06/05 A3031 RMK A01 T00600054  RH  096%=      5-min Rain = 0
KCO1 090657Z 14005KT 06/05 A3031 RMK A01 T00600054  RH  096%=      5-min Rain = 0
KCO1 090658Z 14005KT 06/05 A3031 RMK A01 T00600054  RH  096%=      5-min Rain = 0
KCO1 090659Z 14005KT 06/05 A3031 RMK A01 T00600054  RH  096%=      5-min Rain = 0
KCO1 090700Z 13005KT 06/05 A3031 RMK A01 T00600054  RH  096%=      5-min Rain = 0
KCO1 090701Z 14005KT 06/05 A3031 RMK A01 T00600054  RH  096%=      5-min Rain = 0
KCO1 090702Z 13004KT 06/05 A3031 RMK A01 T00600054  RH  096%=      5-min Rain = 0
KCO1 090703Z 14004KT 06/05 A3031 RMK A01 T00600054  RH  096%=      5-min Rain = 0
KCO1 090704Z 13004KT 06/05 A3031 RMK A01 T00600054  RH  096%=      5-min Rain = 0
KCO1 090705Z 13004KT 06/05 A3031 RMK A01 T00600054  RH  096%=      5-min Rain = 0
KCO1 090706Z 13004KT 06/05 A3031 RMK A01 T00600054  RH  096%=      5-min Rain = 0
KCO1 090707Z 13005KT 06/05 A303 RMK A01 T00600053  RH  096%=      5-min Rain = 0
KCO1 090708Z 13005KT 06/05 A303 RMK A01 T00600053  RH  096%=      5-min Rain = 0
KCO1 090709Z 13005KT 06/05 A303 RMK A01 T00600053  RH  096%=      5-min Rain = 0
KCO1 090710Z 13005KT 06/05 A303 RMK A01 T00600053  RH  096%=      5-min Rain = 0
KCO1 090711Z 12005KT 06/05 A303 RMK A01 T00600053  RH  096%=      5-min Rain = 0
KCO1 090712Z 12004KT 06/05 A303 RMK A01 T00600054  RH  096%=      5-min Rain = 0
KCO1 090713Z 12004KT 06/05 A303 RMK A01 T00600053  RH  096%=      5-min Rain = 0
KCO1 090714Z 12005KT 06/05 A303 RMK A01 T00600053  RH  096%=      5-min Rain = 0
KCO1 090715Z 12004KT 06/05 A303 RMK A01 T00600054  RH  096%=      5-min Rain = 0
KCO1 090722Z 11004KT 06/05 A303 RMK A01 T00580052  RH  096%=      5-min Rain = 0
KCO1 090723Z 12004KT 06/05 A303 RMK A01 T00580052  RH  096%=      5-min Rain = 0
KCO1 090724Z 12004KT 06/05 A303 RMK A01 T00580051  RH  096%=      5-min Rain = 0
KCO1 090725Z 12004KT 06/05 A303 RMK A01 T00570051  RH  096%=      5-min Rain = 0
KCO1 090726Z 12004KT 06/05 A303 RMK A01 T00570051  RH  096%=      5-min Rain = 0
KCO1 090727Z 12004KT 06/05 A303 RMK A01 T00570050  RH  096%=      5-min Rain = 0
KCO1 090728Z 12004KT 06/05 A303 RMK A01 T00560050  RH  096%=      5-min Rain = 0
KCO1 090729Z 12005KT 06/05 A303 RMK A01 T00560050  RH  096%=      5-min Rain = 0
KCO1 090730Z 12004KT 06/05 A303 RMK A01 T00550049  RH  096%=      5-min Rain = 0
KCO1 090731Z 12004KT 06/05 A3029 RMK A01 T00550049  RH  096%=      5-min Rain = 0
KCO1 090732Z 12004KT 06/05 A3029 RMK A01 T00550049  RH  096%=      5-min Rain = 0
KCO1 090733Z 12004KT 06/05 A303 RMK A01 T00550048  RH  096%=      5-min Rain = 0
KCO1 090734Z 12004KT 06/05 A303 RMK A01 T00550048  RH  096%=      5-min Rain = 0
KCO1 090735Z 12003KT 05/05 A303 RMK A01 T00540048  RH  096%=      5-min Rain = 0
KCO1 090736Z 12004KT 05/05 A303 RMK A01 T00540048  RH  096%=      5-min Rain = 0
KCO1 090737Z 12004KT 05/05 A303 RMK A01 T00540048  RH  096%=      5-min Rain = 0
KCO1 090738Z 12003KT 05/05 A303 RMK A01 T00540048  RH  096%=      5-min Rain = 0
KCO1 090739Z 12003KT 05/05 A3029 RMK A01 T00540048  RH  096%=      5-min Rain = 0
KCO1 090740Z 12004KT 05/05 A3029 RMK A01 T00540048  RH  096%=      5-min Rain = 0
KCO1 090741Z 11004KT 05/05 A3029 RMK A01 T00540048  RH  096%=      5-min Rain = 0
KCO1 090742Z 11004KT 05/05 A3029 RMK A01 T00540048  RH  096%=      5-min Rain = 0
KCO1 090743Z 11004KT 05/05 A3029 RMK A01 T00540048  RH  096%=      5-min Rain = 0
KCO1 090744Z 12004KT 05/05 A3029 RMK A01 T00540048  RH  096%=      5-min Rain = 0
KCO1 090745Z 12004KT 05/05 A3029 RMK A01 T00540048  RH  096%=      5-min Rain = 0
KCO1 090746Z 13004KT 05/05 A3029 RMK A01 T00540048  RH  096%=      5-min Rain = 0
KCO1 090747Z 13004KT 05/05 A3029 RMK A01 T00540048  RH  096%=      5-min Rain = 0
KCO1 090748Z 13004KT 05/05 A3029 RMK A01 T00540048  RH  096%=      5-min Rain = 0
KCO1 090749Z 13004KT 05/05 A3029 RMK A01 T00540048  RH  096%=      5-min Rain = 0
KCO1 090750Z 13004KT 05/05 A3029 RMK A01 T00540048  RH  096%=      5-min Rain = 0
KCO1 090751Z 12004KT 05/05 A3029 RMK A01 T00540048  RH  096%=      5-min Rain = 0
KCO1 090752Z 12004KT 05/05 A3029 RMK A01 T00530047  RH  096%=      5-min Rain = 0
KCO1 090753Z 12004KT 05/05 A3029 RMK A01 T00530047  RH  096%=      5-min Rain = 0
KCO1 090754Z 12004KT 05/05 A3029 RMK A01 T00530047  RH  096%=      5-min Rain = 0
KCO1 090755Z 12004KT 05/05 A3029 RMK A01 T00530047  RH  096%=      5-min Rain = 0
KCO1 090756Z 12004KT 05/05 A3029 RMK A01 T00530047  RH  096%=      5-min Rain = 0
KCO1 090757Z 12004KT 05/05 A3029 RMK A01 T00530047  RH  096%=      5-min Rain = 0
KCO1 090758Z 12005KT 05/05 A3029 RMK A01 T00530047  RH  096%=      5-min Rain = 0
KCO1 090759Z 13004KT 05/05 A3029 RMK A01 T00530047  RH  096%=      5-min Rain = 0
KCO1 090800Z 13004KT 05/05 A3029 RMK A01 T00520046  RH  096%=      5-min Rain = 0
KCO1 090801Z 12004KT 05/05 A3029 RMK A01 T00520046  RH  096%=      5-min Rain = 0
KCO1 090802Z 12004KT 05/05 A3029 RMK A01 T00520046  RH  096%=      5-min Rain = 0
KCO1 090803Z 12003KT 05/05 A3029 RMK A01 T00520046  RH  096%=      5-min Rain = 0
KCO1 090804Z 12003KT 05/05 A3029 RMK A01 T00520047  RH  096%=      5-min Rain = 0
KCO1 090805Z 12003KT 05/05 A3029 RMK A01 T00520047  RH  096%=      5-min Rain = 0
KCO1 090806Z 12003KT 05/05 A3029 RMK A01 T00520047  RH  096%=      5-min Rain = 0
KCO1 090807Z 12003KT 05/05 A3029 RMK A01 T00520047  RH  096%=      5-min Rain = 0
KCO1 090808Z 11003KT 05/05 A3029 RMK A01 T00520047  RH  096%=      5-min Rain = 0
KCO1 090809Z 11003KT 05/05 A3029 RMK A01 T00520047  RH  096%=      5-min Rain = 0
KCO1 090810Z 11003KT 05/05 A3029 RMK A01 T00520047  RH  096%=      5-min Rain = 0
KCO1 090811Z 11003KT 05/05 A3029 RMK A01 T00520047  RH  096%=      5-min Rain = 0
KCO1 090812Z 11003KT 05/05 A3029 RMK A01 T00520047  RH  096%=      5-min Rain = 0
KCO1 090813Z 10003KT 05/05 A3029 RMK A01 T00520047  RH  096%=      5-min Rain = 0
KCO1 090814Z 10004KT 05/05 A3029 RMK A01 T00520047  RH  097%=      5-min Rain = 0
KCO1 090815Z 10004KT 05/05 A3028 RMK A01 T00520047  RH  097%=      5-min Rain = 0
KCO1 090816Z 10004KT 05/05 A3028 RMK A01 T00520047  RH  096%=      5-min Rain = 0
KCO1 090817Z 10003KT 05/05 A3029 RMK A01 T00520046  RH  096%=      5-min Rain = 0
KCO1 090818Z 11003KT 05/05 A3029 RMK A01 T00510046  RH  096%=      5-min Rain = 0
KCO1 090819Z 11003KT 05/05 A3029 RMK A01 T00510045  RH  096%=      5-min Rain = 0
KCO1 090820Z 10003KT 05/05 A3029 RMK A01 T00500045  RH  096%=      5-min Rain = 0
KCO1 090821Z 10004KT 05/05 A3029 RMK A01 T00500045  RH  096%=      5-min Rain = 0
KCO1 090822Z 10004KT 05/05 A3028 RMK A01 T00510045  RH  097%=      5-min Rain = 0
KCO1 090823Z 10004KT 05/05 A3028 RMK A01 T00510046  RH  097%=      5-min Rain = 0
KCO1 090824Z 10004KT 05/05 A3028 RMK A01 T00500045  RH  096%=      5-min Rain = 0
KCO1 090825Z 10004KT 05/05 A3028 RMK A01 T00500045  RH  096%=      5-min Rain = 0
KCO1 090826Z 10003KT 05/05 A3028 RMK A01 T00500045  RH  096%=      5-min Rain = 0
KCO1 090827Z 10003KT 05/04 A3028 RMK A01 T00500044  RH  096%=      5-min Rain = 0
KCO1 090828Z 10003KT 05/04 A3028 RMK A01 T00500044  RH  096%=      5-min Rain = 0
KCO1 090829Z 09003KT 05/04 A3028 RMK A01 T00490044  RH  096%=      5-min Rain = 0
KCO1 090830Z 10004KT 05/04 A3028 RMK A01 T00490044  RH  097%=      5-min Rain = 0
KCO1 090831Z 09003KT 05/05 A3028 RMK A01 T00500045  RH  097%=      5-min Rain = 0
KCO1 090832Z 09003KT 05/05 A3028 RMK A01 T00500045  RH  097%=      5-min Rain = 0
KCO1 090833Z 09003KT 05/05 A3028 RMK A01 T00500045  RH  097%=      5-min Rain = 0
KCO1 090834Z 09003KT 05/05 A3028 RMK A01 T00500046  RH  097%=      5-min Rain = 0
KCO1 090835Z 09003KT 05/05 A3028 RMK A01 T00500045  RH  097%=      5-min Rain = 0
KCO1 090836Z 09003KT 05/05 A3028 RMK A01 T00500045  RH  097%=      5-min Rain = 0
KCO1 090837Z 09003KT 05/05 A3028 RMK A01 T00500045  RH  097%=      5-min Rain = 0
KCO1 090838Z 09003KT 05/05 A3028 RMK A01 T00500045  RH  097%=      5-min Rain = 0
KCO1 090839Z 08003KT 05/05 A3028 RMK A01 T00500045  RH  097%=      5-min Rain = 0
KCO1 090840Z 08003KT 05/04 A3028 RMK A01 T00490044  RH  097%=      5-min Rain = 0
KCO1 090841Z 08003KT 05/04 A3028 RMK A01 T00490044  RH  097%=      5-min Rain = 0
KCO1 090842Z 08003KT 05/04 A3028 RMK A01 T00490044  RH  097%=      5-min Rain = 0
KCO1 090843Z 08003KT 05/05 A3028 RMK A01 T00490045  RH  097%=      5-min Rain = 0
KCO1 090844Z 08003KT 05/04 A3028 RMK A01 T00490044  RH  097%=      5-min Rain = 0
KCO1 090845Z 08003KT 05/04 A3028 RMK A01 T00490044  RH  097%=      5-min Rain = 0
KCO1 090846Z 08003KT 05/04 A3028 RMK A01 T00490044  RH  097%=      5-min Rain = 0
KCO1 090847Z 08003KT 05/04 A3028 RMK A01 T00490044  RH  097%=      5-min Rain = 0
KCO1 090848Z 07003KT 05/04 A3028 RMK A01 T00480044  RH  097%=      5-min Rain = 0
KCO1 090849Z 07002KT 05/04 A3028 RMK A01 T00480043  RH  097%=      5-min Rain = 0
KCO1 090850Z 06002KT 05/04 A3028 RMK A01 T00480043  RH  097%=      5-min Rain = 0
KCO1 090851Z 06002KT 05/04 A3028 RMK A01 T00480043  RH  097%=      5-min Rain = 0
KCO1 090852Z 06003KT 05/04 A3028 RMK A01 T00470042  RH  097%=      5-min Rain = 0
KCO1 090853Z 05003KT 05/04 A3028 RMK A01 T00470043  RH  097%=      5-min Rain = 0
KCO1 090854Z 05004KT 05/04 A3028 RMK A01 T00470042  RH  097%=      5-min Rain = 0
KCO1 090855Z 05004KT 05/04 A3028 RMK A01 T00470042  RH  097%=      5-min Rain = 0
KCO1 090856Z 05004KT 05/04 A3028 RMK A01 T00460042  RH  097%=      5-min Rain = 0
KCO1 090857Z 06003KT 05/04 A3028 RMK A01 T00460041  RH  097%=      5-min Rain = 0
KCO1 090858Z 06003KT 05/04 A3028 RMK A01 T00460041  RH  097%=      5-min Rain = 0
KCO1 090859Z 05003KT 05/04 A3028 RMK A01 T00460041  RH  097%=      5-min Rain = 0
KCO1 090900Z 05003KT 05/04 A3028 RMK A01 T00460041  RH  097%=      5-min Rain = 0
KCO1 090901Z 05003KT 05/04 A3028 RMK A01 T00460041  RH  097%=      5-min Rain = 0
KCO1 090902Z 05003KT 05/04 A3028 RMK A01 T00460042  RH  097%=      5-min Rain = 0
KCO1 090903Z 04003KT 05/04 A3028 RMK A01 T00460042  RH  097%=      5-min Rain = 0
KCO1 090904Z 04003KT 05/04 A3028 RMK A01 T00460041  RH  097%=      5-min Rain = 0
KCO1 090905Z 04003KT 05/04 A3028 RMK A01 T00460041  RH  097%=      5-min Rain = 0
KCO1 090906Z 04002KT 05/04 A3028 RMK A01 T00460042  RH  097%=      5-min Rain = 0
KCO1 090907Z 05002KT 05/04 A3027 RMK A01 T00460042  RH  097%=      5-min Rain = 0
KCO1 090908Z 05003KT 05/04 A3027 RMK A01 T00460041  RH  097%=      5-min Rain = 0
KCO1 090909Z 05003KT 05/04 A3027 RMK A01 T00460041  RH  097%=      5-min Rain = 0
KCO1 090910Z 05003KT 05/04 A3027 RMK A01 T00460041  RH  097%=      5-min Rain = 0
KCO1 090911Z 04003KT 05/04 A3027 RMK A01 T00460041  RH  097%=      5-min Rain = 0
KCO1 090912Z 04003KT 05/04 A3027 RMK A01 T00460041  RH  097%=      5-min Rain = 0
KCO1 090913Z 04002KT 05/04 A3027 RMK A01 T00460041  RH  097%=      5-min Rain = 0
KCO1 090914Z 05002KT 05/04 A3027 RMK A01 T00460041  RH  097%=      5-min Rain = 0
KCO1 090915Z 05002KT 05/04 A3027 RMK A01 T00450041  RH  097%=      5-min Rain = 0
KCO1 090916Z 05003KT 05/04 A3027 RMK A01 T00450040  RH  097%=      5-min Rain = 0
KCO1 090917Z 05003KT 05/04 A3027 RMK A01 T00450040  RH  097%=      5-min Rain = 0
KCO1 090918Z 05002KT 05/04 A3027 RMK A01 T00450041  RH  097%=      5-min Rain = 0
KCO1 090919Z 05002KT 05/04 A3027 RMK A01 T00450041  RH  097%=      5-min Rain = 0
KCO1 090920Z 04002KT 05/04 A3027 RMK A01 T00450041  RH  097%=      5-min Rain = 0
KCO1 090921Z 04002KT 05/04 A3027 RMK A01 T00450041  RH  097%=      5-min Rain = 0
KCO1 090922Z 05002KT 05/04 A3027 RMK A01 T00450041  RH  097%=      5-min Rain = 0
KCO1 090923Z 05002KT 05/04 A3027 RMK A01 T00450041  RH  097%=      5-min Rain = 0
KCO1 090924Z 05002KT 05/04 A3027 RMK A01 T00450041  RH  097%=      5-min Rain = 0
KCO1 090925Z 05002KT 05/04 A3027 RMK A01 T00450041  RH  097%=      5-min Rain = 0
KCO1 090926Z 05002KT 05/04 A3027 RMK A01 T00460042  RH  097%=      5-min Rain = 0
KCO1 090927Z 04002KT 05/04 A3027 RMK A01 T00460042  RH  097%=      5-min Rain = 0
KCO1 090928Z 04002KT 05/04 A3027 RMK A01 T00450041  RH  097%=      5-min Rain = 0
KCO1 090929Z 04002KT 05/04 A3027 RMK A01 T00450041  RH  097%=      5-min Rain = 0
KCO1 090930Z 04002KT 05/04 A3027 RMK A01 T00450041  RH  097%=      5-min Rain = 0
KCO1 090931Z 04001KT 04/04 A3027 RMK A01 T00440040  RH  097%=      5-min Rain = 0
KCO1 090932Z 05001KT 04/04 A3027 RMK A01 T00440040  RH  097%=      5-min Rain = 0
KCO1 090933Z 05001KT 04/04 A3027 RMK A01 T00430039  RH  097%=      5-min Rain = 0
KCO1 090934Z 06002KT 04/04 A3027 RMK A01 T00430039  RH  097%=      5-min Rain = 0
KCO1 090935Z 06002KT 04/04 A3027 RMK A01 T00430039  RH  097%=      5-min Rain = 0
KCO1 090936Z 06002KT 04/04 A3027 RMK A01 T00430039  RH  097%=      5-min Rain = 0
KCO1 090937Z 06002KT 04/04 A3027 RMK A01 T00430039  RH  097%=      5-min Rain = 0
KCO1 090938Z 06002KT 04/04 A3027 RMK A01 T00430040  RH  097%=      5-min Rain = 0
KCO1 090939Z 05002KT 04/04 A3027 RMK A01 T00440040  RH  097%=      5-min Rain = 0
KCO1 090940Z 05002KT 04/04 A3027 RMK A01 T00440040  RH  097%=      5-min Rain = 0
KCO1 090941Z 05002KT 04/04 A3027 RMK A01 T00430040  RH  097%=      5-min Rain = 0
KCO1 090942Z 05002KT 04/04 A3027 RMK A01 T00430039  RH  097%=      5-min Rain = 0
KCO1 090943Z 05001KT 04/04 A3027 RMK A01 T00420038  RH  097%=      5-min Rain = 0
KCO1 090944Z 05001KT 04/04 A3027 RMK A01 T00420038  RH  097%=      5-min Rain = 0
KCO1 090945Z 05001KT 04/04 A3027 RMK A01 T00420038  RH  097%=      5-min Rain = 0
KCO1 090946Z 05001KT 04/04 A3027 RMK A01 T00420039  RH  097%=      5-min Rain = 0
KCO1 090947Z 05001KT 04/04 A3027 RMK A01 T00420039  RH  097%=      5-min Rain = 0
KCO1 090948Z 05001KT 04/04 A3027 RMK A01 T00430039  RH  097%=      5-min Rain = 0
KCO1 090949Z 04001KT 04/04 A3027 RMK A01 T00430039  RH  097%=      5-min Rain = 0
KCO1 090950Z 04002KT 04/04 A3027 RMK A01 T00430039  RH  097%=      5-min Rain = 0
KCO1 090951Z 03003KT 04/04 A3027 RMK A01 T00440040  RH  098%=      5-min Rain = 0
KCO1 090952Z 03003KT 04/04 A3027 RMK A01 T00440040  RH  098%=      5-min Rain = 0
KCO1 090953Z 02002KT 04/04 A3027 RMK A01 T00440040  RH  098%=      5-min Rain = 0
KCO1 090954Z 01002KT 04/04 A3027 RMK A01 T00430040  RH  098%=      5-min Rain = 0
KCO1 090955Z 01002KT 04/04 A3027 RMK A01 T00430039  RH  097%=      5-min Rain = 0
KCO1 090956Z 01002KT 04/04 A3027 RMK A01 T00430039  RH  097%=      5-min Rain = 0
KCO1 090957Z 01002KT 04/04 A3027 RMK A01 T00420039  RH  097%=      5-min Rain = 0
KCO1 090958Z 01002KT 04/04 A3027 RMK A01 T00420038  RH  097%=      5-min Rain = 0
KCO1 090959Z 01001KT 04/04 A3027 RMK A01 T00410038  RH  097%=      5-min Rain = 0
KCO1 091000Z 00001KT 04/04 A3027 RMK A01 T00410038  RH  097%=      5-min Rain = 0
KCO1 091001Z 36001KT 04/04 A3027 RMK A01 T00410037  RH  097%=      5-min Rain = 0
KCO1 091002Z 36001KT 04/04 A3027 RMK A01 T00410037  RH  097%=      5-min Rain = 0
KCO1 091003Z 02001KT 04/04 A3027 RMK A01 T00410037  RH  097%=      5-min Rain = 0
KCO1 091004Z 02002KT 04/04 A3027 RMK A01 T00400036  RH  097%=      5-min Rain = 0
KCO1 091005Z 02002KT 04/04 A3027 RMK A01 T00400036  RH  097%=      5-min Rain = 0
KCO1 091006Z 01002KT 04/04 A3027 RMK A01 T00390035  RH  097%=      5-min Rain = 0
KCO1 091007Z 00002KT 04/04 A3027 RMK A01 T00390035  RH  097%=      5-min Rain = 0
KCO1 091008Z 00002KT 04/03 A3027 RMK A01 T00380034  RH  097%=      5-min Rain = 0
KCO1 091009Z 36002KT 04/03 A3027 RMK A01 T00380034  RH  097%=      5-min Rain = 0
KCO1 091010Z 35002KT 04/03 A3027 RMK A01 T00370033  RH  097%=      5-min Rain = 0
KCO1 091011Z 36002KT 04/03 A3027 RMK A01 T00360032  RH  097%=      5-min Rain = 0
KCO1 091012Z 00003KT 04/03 A3027 RMK A01 T00360032  RH  097%=      5-min Rain = 0
KCO1 091013Z 00003KT 04/03 A3027 RMK A01 T00350031  RH  097%=      5-min Rain = 0
KCO1 091014Z 00002KT 04/03 A3027 RMK A01 T00350031  RH  097%=      5-min Rain = 0
KCO1 091015Z 00002KT 04/03 A3027 RMK A01 T00350031  RH  097%=      5-min Rain = 0
KCO1 091016Z 00002KT 03/03 A3027 RMK A01 T00340031  RH  097%=      5-min Rain = 0
KCO1 091017Z 00002KT 04/03 A3027 RMK A01 T00350031  RH  097%=      5-min Rain = 0
KCO1 091018Z 00002KT 03/03 A3027 RMK A01 T00340031  RH  097%=      5-min Rain = 0
KCO1 091019Z 00002KT 04/03 A3027 RMK A01 T00350031  RH  097%=      5-min Rain = 0
KCO1 091020Z 00002KT 03/03 A3027 RMK A01 T00340031  RH  097%=      5-min Rain = 0
KCO1 091021Z 00002KT 03/03 A3027 RMK A01 T00340030  RH  097%=      5-min Rain = 0
KCO1 091022Z 00002KT 03/03 A3028 RMK A01 T00340030  RH  097%=      5-min Rain = 0
KCO1 091023Z 35001KT 03/03 A3028 RMK A01 T00340031  RH  098%=      5-min Rain = 0
KCO1 091024Z 34001KT 03/03 A3028 RMK A01 T00340031  RH  098%=      5-min Rain = 0
KCO1 091025Z 32001KT 03/03 A3028 RMK A01 T00340031  RH  098%=      5-min Rain = 0
KCO1 091026Z 33001KT 03/03 A3028 RMK A01 T00340031  RH  098%=      5-min Rain = 0
KCO1 091027Z 00001KT 03/03 A3028 RMK A01 T00340031  RH  098%=      5-min Rain = 0
KCO1 091028Z 00002KT 04/03 A3028 RMK A01 T00350031  RH  098%=      5-min Rain = 0
KCO1 091029Z 00002KT 04/03 A3028 RMK A01 T00350032  RH  098%=      5-min Rain = 0
KCO1 091030Z 00002KT 04/03 A3028 RMK A01 T00350032  RH  098%=      5-min Rain = 0
KCO1 091031Z 00002KT 04/03 A3028 RMK A01 T00360032  RH  098%=      5-min Rain = 0
KCO1 091032Z 00002KT 04/03 A3027 RMK A01 T00360032  RH  098%=      5-min Rain = 0
KCO1 091033Z 00002KT 04/03 A3027 RMK A01 T00350032  RH  098%=      5-min Rain = 0
KCO1 091034Z 00002KT 04/03 A3027 RMK A01 T00350032  RH  098%=      5-min Rain = 0
KCO1 091035Z 00002KT 04/03 A3027 RMK A01 T00350032  RH  098%=      5-min Rain = 0
KCO1 091036Z 00002KT 04/03 A3027 RMK A01 T00350031  RH  098%=      5-min Rain = 0
KCO1 091037Z 00002KT 03/03 A3027 RMK A01 T00340031  RH  098%=      5-min Rain = 0
KCO1 091038Z 01002KT 04/03 A3027 RMK A01 T00350032  RH  098%=      5-min Rain = 0
KCO1 091039Z 01002KT 03/03 A3027 RMK A01 T00340031  RH  098%=      5-min Rain = 0
KCO1 091040Z 02002KT 04/03 A3027 RMK A01 T00350032  RH  098%=      5-min Rain = 0
KCO1 091041Z 02002KT 03/03 A3027 RMK A01 T00340031  RH  098%=      5-min Rain = 0
KCO1 091042Z 02002KT 04/03 A3027 RMK A01 T00350032  RH  098%=      5-min Rain = 0
KCO1 091043Z 03002KT 04/03 A3027 RMK A01 T00350031  RH  098%=      5-min Rain = 0
KCO1 091044Z 03002KT 04/03 A3027 RMK A01 T00350031  RH  098%=      5-min Rain = 0
KCO1 091045Z 03002KT 04/03 A3027 RMK A01 T00350031  RH  098%=      5-min Rain = 0
KCO1 091046Z 03002KT 04/03 A3027 RMK A01 T00350032  RH  098%=      5-min Rain = 0
KCO1 091047Z 02002KT 04/03 A3027 RMK A01 T00350031  RH  098%=      5-min Rain = 0
KCO1 091048Z 02002KT 04/03 A3027 RMK A01 T00350032  RH  098%=      5-min Rain = 0
KCO1 091049Z 02002KT 03/03 A3027 RMK A01 T00340031  RH  098%=      5-min Rain = 0
KCO1 091050Z 01002KT 04/03 A3027 RMK A01 T00350032  RH  098%=      5-min Rain = 0
KCO1 091051Z 01002KT 03/03 A3027 RMK A01 T00340031  RH  098%=      5-min Rain = 0
KCO1 091052Z 01002KT 04/03 A3027 RMK A01 T00350032  RH  098%=      5-min Rain = 0
KCO1 091053Z 02002KT 04/03 A3027 RMK A01 T00350032  RH  098%=      5-min Rain = 0
KCO1 091054Z 02002KT 04/03 A3027 RMK A01 T00350032  RH  098%=      5-min Rain = 0
KCO1 091055Z 02002KT 04/03 A3027 RMK A01 T00350032  RH  098%=      5-min Rain = 0
KCO1 091056Z 02002KT 03/03 A3027 RMK A01 T00340031  RH  098%=      5-min Rain = 0
KCO1 091057Z 02002KT 03/03 A3027 RMK A01 T00340031  RH  098%=      5-min Rain = 0
KCO1 091058Z 02002KT 03/03 A3027 RMK A01 T00340031  RH  098%=      5-min Rain = 0
KCO1 091059Z 02002KT 03/03 A3027 RMK A01 T00340031  RH  098%=      5-min Rain = 0
KCO1 091100Z 02002KT 03/03 A3027 RMK A01 T00340031  RH  098%=      5-min Rain = 0
KCO1 091101Z 01003KT 03/03 A3027 RMK A01 T00340031  RH  098%=      5-min Rain = 0
KCO1 091102Z 01002KT 03/03 A3027 RMK A01 T00340031  RH  098%=      5-min Rain = 0
KCO1 091103Z 01002KT 03/03 A3027 RMK A01 T00340031  RH  098%=      5-min Rain = 0
KCO1 091104Z 01002KT 03/03 A3027 RMK A01 T00340031  RH  098%=      5-min Rain = 0
KCO1 091105Z 02002KT 03/03 A3027 RMK A01 T00340031  RH  098%=      5-min Rain = 0
KCO1 091106Z 02002KT 03/03 A3027 RMK A01 T00340031  RH  098%=      5-min Rain = 0
KCO1 091107Z 02002KT 03/03 A3027 RMK A01 T00340031  RH  098%=      5-min Rain = 0
KCO1 091108Z 02002KT 03/03 A3027 RMK A01 T00340031  RH  098%=      5-min Rain = 0
KCO1 091109Z 01002KT 03/03 A3027 RMK A01 T00340031  RH  098%=      5-min Rain = 0
KCO1 091110Z 01002KT 03/03 A3027 RMK A01 T00340031  RH  098%=      5-min Rain = 0
KCO1 091111Z 01003KT 04/03 A3027 RMK A01 T00350032  RH  098%=      5-min Rain = 0
KCO1 091112Z 01003KT 03/03 A3027 RMK A01 T00340032  RH  098%=      5-min Rain = 0
KCO1 091113Z 01003KT 04/03 A3027 RMK A01 T00350032  RH  098%=      5-min Rain = 0
KCO1 091114Z 01003KT 04/03 A3027 RMK A01 T00350032  RH  098%=      5-min Rain = 0
KCO1 091115Z 02003KT 03/03 A3027 RMK A01 T00340031  RH  098%=      5-min Rain = 0
KCO1 091116Z 02003KT 03/03 A3027 RMK A01 T00340031  RH  098%=      5-min Rain = 0
KCO1 091117Z 02003KT 03/03 A3027 RMK A01 T00340031  RH  098%=      5-min Rain = 0
KCO1 091118Z 02003KT 04/03 A3027 RMK A01 T00350032  RH  098%=      5-min Rain = 0
KCO1 091119Z 02003KT 04/03 A3027 RMK A01 T00350032  RH  098%=      5-min Rain = 0
KCO1 091120Z 02003KT 04/03 A3027 RMK A01 T00350032  RH  098%=      5-min Rain = 0
KCO1 091121Z 02002KT 04/03 A3027 RMK A01 T00350032  RH  098%=      5-min Rain = 0
KCO1 091122Z 02002KT 04/03 A3027 RMK A01 T00350032  RH  098%=      5-min Rain = 0
KCO1 091123Z 02002KT 04/03 A3027 RMK A01 T00350032  RH  098%=      5-min Rain = 0
KCO1 091124Z 02002KT 04/03 A3027 RMK A01 T00350033  RH  098%=      5-min Rain = 0
KCO1 091125Z 03002KT 04/03 A3027 RMK A01 T00360033  RH  098%=      5-min Rain = 0
KCO1 091126Z 03003KT 04/03 A3027 RMK A01 T00350033  RH  098%=      5-min Rain = 0
KCO1 091127Z 03002KT 04/03 A3027 RMK A01 T00360033  RH  098%=      5-min Rain = 0
KCO1 091128Z 03003KT 04/03 A3027 RMK A01 T00350033  RH  098%=      5-min Rain = 0
KCO1 091129Z 04003KT 04/03 A3027 RMK A01 T00350033  RH  098%=      5-min Rain = 0
KCO1 091130Z 04003KT 04/03 A3027 RMK A01 T00350033  RH  098%=      5-min Rain = 0
KCO1 091131Z 04003KT 04/03 A3027 RMK A01 T00360033  RH  098%=      5-min Rain = 0
KCO1 091132Z 04003KT 04/03 A3027 RMK A01 T00350033  RH  098%=      5-min Rain = 0
KCO1 091133Z 05002KT 04/03 A3027 RMK A01 T00350032  RH  098%=      5-min Rain = 0
KCO1 091134Z 06002KT 04/03 A3027 RMK A01 T00350032  RH  098%=      5-min Rain = 0
KCO1 091135Z 06002KT 04/03 A3027 RMK A01 T00350032  RH  098%=      5-min Rain = 0
KCO1 091136Z 06002KT 04/03 A3027 RMK A01 T00350032  RH  098%=      5-min Rain = 0
KCO1 091137Z 06002KT 03/03 A3027 RMK A01 T00340031  RH  098%=      5-min Rain = 0
KCO1 091138Z 06002KT 03/03 A3027 RMK A01 T00340031  RH  098%=      5-min Rain = 0
KCO1 091139Z 06003KT 04/03 A3027 RMK A01 T00350032  RH  098%=      5-min Rain = 0
KCO1 091140Z 06003KT 04/03 A3027 RMK A01 T00350032  RH  098%=      5-min Rain = 0
KCO1 091141Z 06003KT 04/03 A3027 RMK A01 T00350032  RH  098%=      5-min Rain = 0
KCO1 091142Z 06002KT 04/03 A3027 RMK A01 T00350032  RH  098%=      5-min Rain = 0
KCO1 091143Z 06002KT 04/03 A3027 RMK A01 T00350032  RH  098%=      5-min Rain = 0
KCO1 091144Z 06003KT 04/03 A3027 RMK A01 T00350033  RH  098%=      5-min Rain = 0
KCO1 091145Z 06003KT 04/03 A3027 RMK A01 T00360033  RH  098%=      5-min Rain = 0
KCO1 091146Z 06003KT 04/03 A3027 RMK A01 T00360033  RH  098%=      5-min Rain = 0
KCO1 091147Z 06003KT 04/03 A3027 RMK A01 T00360034  RH  098%=      5-min Rain = 0
KCO1 091148Z 06003KT 04/03 A3027 RMK A01 T00370034  RH  098%=      5-min Rain = 0
KCO1 091149Z 07003KT 04/03 A3027 RMK A01 T00370034  RH  098%=      5-min Rain = 0
KCO1 091150Z 06002KT 04/04 A3027 RMK A01 T00370035  RH  098%=      5-min Rain = 0
KCO1 091151Z 06002KT 04/04 A3028 RMK A01 T00370035  RH  098%=      5-min Rain = 0
KCO1 091152Z 06002KT 04/04 A3028 RMK A01 T00370035  RH  098%=      5-min Rain = 0
KCO1 091153Z 06003KT 04/04 A3028 RMK A01 T00370035  RH  098%=      5-min Rain = 0
KCO1 091154Z 05002KT 04/04 A3028 RMK A01 T00380036  RH  099%=      5-min Rain = 0
KCO1 091155Z 05003KT 04/04 A3028 RMK A01 T00380036  RH  099%=      5-min Rain = 0
KCO1 091156Z 05003KT 04/04 A3028 RMK A01 T00380036  RH  099%=      5-min Rain = 0
KCO1 091157Z 05003KT 04/04 A3028 RMK A01 T00380036  RH  099%=      5-min Rain = 0
KCO1 091158Z 04003KT 04/04 A3028 RMK A01 T00380036  RH  099%=      5-min Rain = 0
KCO1 091159Z 04003KT 04/04 A3028 RMK A01 T00390036  RH  099%=      5-min Rain = 0
KCO1 091200Z 04002KT 04/04 A3028 RMK A01 T00380036  RH  099%=      5-min Rain = 0
KCO1 091201Z 04002KT 04/04 A3028 RMK A01 T00380036  RH  099%=      5-min Rain = 0
KCO1 091202Z 04002KT 04/04 A3028 RMK A01 T00380036  RH  099%=      5-min Rain = 0
KCO1 091203Z 04002KT 04/04 A3028 RMK A01 T00380036  RH  099%=      5-min Rain = 0
KCO1 091204Z 05002KT 04/04 A3028 RMK A01 T00380036  RH  099%=      5-min Rain = 0
KCO1 091205Z 06002KT 04/04 A3028 RMK A01 T00380036  RH  099%=      5-min Rain = 0
KCO1 091206Z 06002KT 04/04 A3028 RMK A01 T00380036  RH  098%=      5-min Rain = 0
KCO1 091207Z 06002KT 04/04 A3028 RMK A01 T00380036  RH  098%=      5-min Rain = 0
KCO1 091208Z 06001KT 04/04 A3028 RMK A01 T00380036  RH  098%=      5-min Rain = 0
KCO1 091209Z 05002KT 04/04 A3028 RMK A01 T00380036  RH  098%=      5-min Rain = 0
KCO1 091210Z 05002KT 04/04 A3028 RMK A01 T00380036  RH  099%=      5-min Rain = 0
KCO1 091211Z 05002KT 04/04 A3028 RMK A01 T00380036  RH  099%=      5-min Rain = 0
KCO1 091212Z 05002KT 04/04 A3028 RMK A01 T00380036  RH  099%=      5-min Rain = 0
KCO1 091213Z 05002KT 04/04 A3028 RMK A01 T00380036  RH  099%=      5-min Rain = 0
KCO1 091214Z 05002KT 04/04 A3028 RMK A01 T00380036  RH  099%=      5-min Rain = 0
KCO1 091215Z 05002KT 04/04 A3028 RMK A01 T00380036  RH  099%=      5-min Rain = 0
KCO1 091216Z 05001KT 04/04 A3028 RMK A01 T00380036  RH  099%=      5-min Rain = 0
KCO1 091217Z 05001KT 04/04 A3028 RMK A01 T00380036  RH  099%=      5-min Rain = 0
KCO1 091218Z 05001KT 04/04 A3028 RMK A01 T00380036  RH  099%=      5-min Rain = 0
KCO1 091219Z 05001KT 04/04 A3028 RMK A01 T00380036  RH  099%=      5-min Rain = 0
KCO1 091220Z 07001KT 04/04 A3028 RMK A01 T00380036  RH  099%=      5-min Rain = 0
KCO1 091221Z 08001KT 04/04 A3028 RMK A01 T00380036  RH  099%=      5-min Rain = 0
KCO1 091222Z 08001KT 04/04 A3028 RMK A01 T00380036  RH  099%=      5-min Rain = 0
KCO1 091223Z 08002KT 04/04 A3028 RMK A01 T00380036  RH  099%=      5-min Rain = 0
KCO1 091224Z 08002KT 04/04 A3028 RMK A01 T00380036  RH  099%=      5-min Rain = 0
KCO1 091225Z 08001KT 04/04 A3028 RMK A01 T00380036  RH  099%=      5-min Rain = 0
KCO1 091226Z 08001KT 04/04 A3028 RMK A01 T00380036  RH  099%=      5-min Rain = 0
KCO1 091227Z 08001KT 04/04 A3028 RMK A01 T00390037  RH  099%=      5-min Rain = 0
KCO1 091228Z 09001KT 04/04 A3028 RMK A01 T00380036  RH  099%=      5-min Rain = 0
KCO1 091229Z 09001KT 04/04 A3028 RMK A01 T00380036  RH  099%=      5-min Rain = 0
KCO1 091230Z 09002KT 04/04 A3028 RMK A01 T00380036  RH  099%=      5-min Rain = 0
KCO1 091231Z 09002KT 04/04 A3028 RMK A01 T00380036  RH  099%=      5-min Rain = 0
KCO1 091232Z 10002KT 04/04 A3028 RMK A01 T00380036  RH  099%=      5-min Rain = 0
KCO1 091233Z 10002KT 04/04 A3028 RMK A01 T00390036  RH  099%=      5-min Rain = 0
KCO1 091234Z 11002KT 04/04 A3028 RMK A01 T00380036  RH  099%=      5-min Rain = 0
KCO1 091235Z 11002KT 04/04 A3028 RMK A01 T00370035  RH  099%=      5-min Rain = 0
KCO1 091236Z 11002KT 04/04 A3028 RMK A01 T00370035  RH  099%=      5-min Rain = 0
KCO1 091237Z 13002KT 04/04 A3029 RMK A01 T00370035  RH  099%=      5-min Rain = 0
KCO1 091238Z 13002KT 04/04 A3029 RMK A01 T00370035  RH  098%=      5-min Rain = 0
KCO1 091239Z 14002KT 04/04 A3029 RMK A01 T00370035  RH  099%=      5-min Rain = 0
KCO1 091240Z 14002KT 04/04 A3029 RMK A01 T00370035  RH  099%=      5-min Rain = 0
KCO1 091241Z 15002KT 04/04 A3029 RMK A01 T00370035  RH  099%=      5-min Rain = 0
KCO1 091242Z 15002KT 04/04 A3029 RMK A01 T00370035  RH  099%=      5-min Rain = 0
KCO1 091243Z 15002KT 04/04 A3029 RMK A01 T00370035  RH  099%=      5-min Rain = 0
KCO1 091244Z 16002KT 04/04 A3029 RMK A01 T00370035  RH  099%=      5-min Rain = 0
KCO1 091245Z 16002KT 04/04 A3029 RMK A01 T00370035  RH  099%=      5-min Rain = 0
KCO1 091246Z 17002KT 04/04 A3029 RMK A01 T00370035  RH  099%=      5-min Rain = 0
KCO1 091247Z 17002KT 04/04 A3029 RMK A01 T00370035  RH  099%=      5-min Rain = 0
KCO1 091248Z 18002KT 04/04 A3029 RMK A01 T00370035  RH  099%=      5-min Rain = 0
KCO1 091249Z 17002KT 04/04 A3029 RMK A01 T00370035  RH  099%=      5-min Rain = 0
KCO1 091250Z 17002KT 04/04 A3029 RMK A01 T00380036  RH  099%=      5-min Rain = 0
KCO1 091251Z 17002KT 04/04 A3029 RMK A01 T00380036  RH  099%=      5-min Rain = 0
KCO1 091252Z 16002KT 04/04 A3029 RMK A01 T00380037  RH  099%=      5-min Rain = 0
KCO1 091253Z 16002KT 04/04 A3029 RMK A01 T00380036  RH  099%=      5-min Rain = 0
KCO1 091254Z 17003KT 04/04 A3029 RMK A01 T00390037  RH  099%=      5-min Rain = 0
KCO1 091255Z 16003KT 04/04 A3029 RMK A01 T00390037  RH  099%=      5-min Rain = 0
KCO1 091256Z 17003KT 04/04 A3029 RMK A01 T00390037  RH  099%=      5-min Rain = 0
KCO1 091257Z 17002KT 04/04 A3029 RMK A01 T00390037  RH  099%=      5-min Rain = 0
KCO1 091258Z 17003KT 04/04 A3029 RMK A01 T00390037  RH  099%=      5-min Rain = 0
KCO1 091259Z 17003KT 04/04 A3029 RMK A01 T00390037  RH  099%=      5-min Rain = 0
KCO1 091300Z 17002KT 04/04 A3029 RMK A01 T00390037  RH  099%=      5-min Rain = 0
KCO1 091301Z 17002KT 04/04 A3029 RMK A01 T00390037  RH  099%=      5-min Rain = 0
KCO1 091302Z 17002KT 04/04 A3029 RMK A01 T00400038  RH  099%=      5-min Rain = 0
KCO1 091303Z 17002KT 04/04 A3029 RMK A01 T00400039  RH  099%=      5-min Rain = 0
KCO1 091304Z 16002KT 04/04 A3029 RMK A01 T00410040  RH  099%=      5-min Rain = 0
KCO1 091305Z 17002KT 04/04 A3029 RMK A01 T00420040  RH  099%=      5-min Rain = 0
KCO1 091306Z 16002KT 04/04 A3029 RMK A01 T00410040  RH  099%=      5-min Rain = 0
KCO1 091307Z 16002KT 04/04 A3029 RMK A01 T00420041  RH  099%=      5-min Rain = 0
KCO1 091308Z 15002KT 04/04 A3029 RMK A01 T00420040  RH  099%=      5-min Rain = 0
KCO1 091309Z 15002KT 04/04 A3029 RMK A01 T00420040  RH  099%=      5-min Rain = 0
KCO1 091310Z 15002KT 04/04 A3029 RMK A01 T00410040  RH  099%=      5-min Rain = 0
KCO1 091311Z 14002KT 04/04 A3029 RMK A01 T00410039  RH  099%=      5-min Rain = 0
KCO1 091312Z 15002KT 04/04 A3029 RMK A01 T00410039  RH  099%=      5-min Rain = 0
KCO1 091313Z 15002KT 04/04 A3029 RMK A01 T00410039  RH  099%=      5-min Rain = 0
KCO1 091314Z 15002KT 04/04 A3029 RMK A01 T00400038  RH  099%=      5-min Rain = 0
KCO1 091315Z 16002KT 04/04 A3029 RMK A01 T00400038  RH  099%=      5-min Rain = 0
KCO1 091316Z 15002KT 04/04 A3029 RMK A01 T00400038  RH  099%=      5-min Rain = 0
KCO1 091317Z 15002KT 04/04 A3029 RMK A01 T00390037  RH  099%=      5-min Rain = 0
KCO1 091318Z 14002KT 04/04 A3029 RMK A01 T00390037  RH  099%=      5-min Rain = 0
KCO1 091319Z 13002KT 04/04 A3029 RMK A01 T00390037  RH  099%=      5-min Rain = 0
KCO1 091320Z 13002KT 04/04 A3029 RMK A01 T00390037  RH  099%=      5-min Rain = 0
KCO1 091321Z 12001KT 04/04 A3029 RMK A01 T00390037  RH  099%=      5-min Rain = 0
KCO1 091322Z 12001KT 04/04 A3029 RMK A01 T00390037  RH  099%=      5-min Rain = 0
KCO1 091323Z 10002KT 04/04 A3029 RMK A01 T00390037  RH  099%=      5-min Rain = 0
KCO1 091324Z 10002KT 04/04 A3029 RMK A01 T00390037  RH  099%=      5-min Rain = 0
KCO1 091325Z 10002KT 04/04 A3029 RMK A01 T00380037  RH  099%=      5-min Rain = 0
KCO1 091326Z 12002KT 04/04 A3029 RMK A01 T00380037  RH  099%=      5-min Rain = 0
KCO1 091327Z 12002KT 04/04 A3029 RMK A01 T00380036  RH  099%=      5-min Rain = 0
KCO1 091328Z 13001KT 04/04 A3029 RMK A01 T00380036  RH  099%=      5-min Rain = 0
KCO1 091329Z 15001KT 04/04 A303 RMK A01 T00380036  RH  099%=      5-min Rain = 0
KCO1 091330Z 15001KT 04/04 A303 RMK A01 T00380036  RH  099%=      5-min Rain = 0
KCO1 091331Z 16002KT 04/04 A303 RMK A01 T00380036  RH  099%=      5-min Rain = 0
KCO1 091332Z 16002KT 04/04 A303 RMK A01 T00380036  RH  099%=      5-min Rain = 0
KCO1 091333Z 17002KT 04/04 A303 RMK A01 T00380036  RH  099%=      5-min Rain = 0
KCO1 091334Z 17001KT 04/04 A303 RMK A01 T00380036  RH  099%=      5-min Rain = 0
KCO1 091335Z 18001KT 04/04 A303 RMK A01 T00380036  RH  099%=      5-min Rain = 0
KCO1 091336Z 18001KT 04/04 A303 RMK A01 T00380036  RH  099%=      5-min Rain = 0
KCO1 091337Z 18002KT 04/04 A303 RMK A01 T00380036  RH  099%=      5-min Rain = 0
KCO1 091338Z 18002KT 04/04 A303 RMK A01 T00370036  RH  099%=      5-min Rain = 0
KCO1 091339Z 19002KT 04/04 A303 RMK A01 T00370036  RH  099%=      5-min Rain = 0
KCO1 091340Z 20002KT 04/04 A303 RMK A01 T00380036  RH  099%=      5-min Rain = 0
KCO1 091341Z 20002KT 04/04 A303 RMK A01 T00380036  RH  099%=      5-min Rain = 0
KCO1 091342Z 20002KT 04/04 A303 RMK A01 T00380036  RH  099%=      5-min Rain = 0
KCO1 091343Z 20002KT 04/04 A303 RMK A01 T00380036  RH  099%=      5-min Rain = 0
KCO1 091344Z 20002KT 04/04 A303 RMK A01 T00380037  RH  099%=      5-min Rain = 0
KCO1 091345Z 21001KT 04/04 A303 RMK A01 T00380037  RH  099%=      5-min Rain = 0
KCO1 091346Z 22001KT 04/04 A303 RMK A01 T00380037  RH  099%=      5-min Rain = 0
KCO1 091347Z 23001KT 04/04 A303 RMK A01 T00390037  RH  099%=      5-min Rain = 0
KCO1 091348Z 23001KT 04/04 A303 RMK A01 T00390037  RH  099%=      5-min Rain = 0
KCO1 091349Z 23001KT 04/04 A303 RMK A01 T00390037  RH  099%=      5-min Rain = 0
KCO1 091350Z 24001KT 04/04 A303 RMK A01 T00390037  RH  099%=      5-min Rain = 0
KCO1 091351Z 24000KT 04/04 A303 RMK A01 T00380037  RH  099%=      5-min Rain = 0
KCO1 091352Z 24000KT 04/04 A303 RMK A01 T00380037  RH  099%=      5-min Rain = 0
KCO1 091353Z 24001KT 04/04 A303 RMK A01 T00390037  RH  099%=      5-min Rain = 0
KCO1 091354Z 24001KT 04/04 A303 RMK A01 T00390038  RH  099%=      5-min Rain = 0
KCO1 091355Z 24001KT 04/04 A303 RMK A01 T00390038  RH  099%=      5-min Rain = 0
KCO1 091356Z 27001KT 04/04 A303 RMK A01 T00390038  RH  099%=      5-min Rain = 0
KCO1 091357Z 24001KT 04/04 A303 RMK A01 T00390038  RH  099%=      5-min Rain = 0
KCO1 091358Z 25001KT 04/04 A303 RMK A01 T00400038  RH  099%=      5-min Rain = 0
KCO1 091359Z 23001KT 04/04 A303 RMK A01 T00400039  RH  099%=      5-min Rain = 0
KCO1 091400Z 23001KT 04/04 A303 RMK A01 T00400039  RH  099%=      5-min Rain = 0
KCO1 091401Z 22002KT 04/04 A303 RMK A01 T00410040  RH  099%=      5-min Rain = 0
KCO1 091402Z 23001KT 04/04 A303 RMK A01 T00410039  RH  099%=      5-min Rain = 0
KCO1 091403Z 23001KT 04/04 A303 RMK A01 T00410039  RH  099%=      5-min Rain = 0
KCO1 091404Z 22001KT 04/04 A303 RMK A01 T00400039  RH  099%=      5-min Rain = 0
KCO1 091405Z 22001KT 04/04 A303 RMK A01 T00400039  RH  099%=      5-min Rain = 0
KCO1 091406Z 22001KT 04/04 A3031 RMK A01 T00410039  RH  099%=      5-min Rain = 0
KCO1 091407Z 22000KT 04/04 A3031 RMK A01 T00410039  RH  099%=      5-min Rain = 0
KCO1 091408Z 22000KT 04/04 A3031 RMK A01 T00410039  RH  099%=      5-min Rain = 0
KCO1 091409Z 22001KT 04/04 A3031 RMK A01 T00410040  RH  099%=      5-min Rain = 0
KCO1 091410Z 22002KT 04/04 A3031 RMK A01 T00410040  RH  099%=      5-min Rain = 0
KCO1 091411Z 21002KT 04/04 A3031 RMK A01 T00420040  RH  099%=      5-min Rain = 0
KCO1 091412Z 22002KT 04/04 A3031 RMK A01 T00420041  RH  099%=      5-min Rain = 0
KCO1 091413Z 23002KT 04/04 A3031 RMK A01 T00420041  RH  099%=      5-min Rain = 0
KCO1 091414Z 23002KT 04/04 A3031 RMK A01 T00420041  RH  099%=      5-min Rain = 0
KCO1 091415Z 23002KT 04/04 A3031 RMK A01 T00430042  RH  099%=      5-min Rain = 0
KCO1 091416Z 23002KT 04/04 A3031 RMK A01 T00430042  RH  099%=      5-min Rain = 0
KCO1 091417Z 24001KT 04/04 A3031 RMK A01 T00430042  RH  099%=      5-min Rain = 0
KCO1 091418Z 23002KT 04/04 A3031 RMK A01 T00430041  RH  099%=      5-min Rain = 0
KCO1 091419Z 22002KT 04/04 A3031 RMK A01 T00420041  RH  099%=      5-min Rain = 0
KCO1 091420Z 23001KT 04/04 A3031 RMK A01 T00420041  RH  099%=      5-min Rain = 0
KCO1 091421Z 22001KT 04/04 A3031 RMK A01 T00420041  RH  099%=      5-min Rain = 0
KCO1 091422Z 23001KT 04/04 A3031 RMK A01 T00420041  RH  099%=      5-min Rain = 0
KCO1 091423Z 23000KT 04/04 A3031 RMK A01 T00430041  RH  099%=      5-min Rain = 0
KCO1 091424Z 23000KT 04/04 A3031 RMK A01 T00430041  RH  099%=      5-min Rain = 0
KCO1 091425Z 26000KT 04/04 A3031 RMK A01 T00430042  RH  099%=      5-min Rain = 0
KCO1 091426Z 28001KT 04/04 A3031 RMK A01 T00440042  RH  099%=      5-min Rain = 0
KCO1 091427Z 26001KT 04/04 A3031 RMK A01 T00440043  RH  099%=      5-min Rain = 0
KCO1 091428Z 26001KT 04/04 A3031 RMK A01 T00440043  RH  099%=      5-min Rain = 0
KCO1 091429Z 25000KT 04/04 A3031 RMK A01 T00440043  RH  099%=      5-min Rain = 0
KCO1 091430Z 24001KT 05/04 A3031 RMK A01 T00450044  RH  099%=      5-min Rain = 0
KCO1 091431Z 24002KT 05/04 A3031 RMK A01 T00450044  RH  099%=      5-min Rain = 0
KCO1 091432Z 23001KT 05/05 A3031 RMK A01 T00460045  RH  099%=      5-min Rain = 0
KCO1 091433Z 22001KT 05/04 A3031 RMK A01 T00450044  RH  099%=      5-min Rain = 0
KCO1 091434Z 20001KT 05/04 A3031 RMK A01 T00450044  RH  099%=      5-min Rain = 0
KCO1 091435Z 20002KT 05/05 A3031 RMK A01 T00460045  RH  099%=      5-min Rain = 0
KCO1 091436Z 20002KT 05/05 A3031 RMK A01 T00460045  RH  099%=      5-min Rain = 0
KCO1 091437Z 22003KT 05/05 A3031 RMK A01 T00470046  RH  099%=      5-min Rain = 0
KCO1 091438Z 22003KT 05/05 A3031 RMK A01 T00470045  RH  099%=      5-min Rain = 0
KCO1 091439Z 22003KT 05/04 A3031 RMK A01 T00460044  RH  099%=      5-min Rain = 0
KCO1 091440Z 22003KT 05/04 A3031 RMK A01 T00460044  RH  099%=      5-min Rain = 0
KCO1 091441Z 22002KT 05/05 A3031 RMK A01 T00460045  RH  099%=      5-min Rain = 0
KCO1 091442Z 21003KT 05/05 A3031 RMK A01 T00460045  RH  099%=      5-min Rain = 0
KCO1 091443Z 19002KT 05/05 A3031 RMK A01 T00470045  RH  099%=      5-min Rain = 0
KCO1 091444Z 19003KT 05/05 A3031 RMK A01 T00470045  RH  099%=      5-min Rain = 0
KCO1 091445Z 20003KT 05/05 A3031 RMK A01 T00480046  RH  099%=      5-min Rain = 0
KCO1 091446Z 21002KT 05/05 A3031 RMK A01 T00480047  RH  099%=      5-min Rain = 0
KCO1 091447Z 19002KT 05/05 A3031 RMK A01 T00480047  RH  099%=      5-min Rain = 0
KCO1 091448Z 18002KT 05/05 A3031 RMK A01 T00490047  RH  099%=      5-min Rain = 0
KCO1 091449Z 19002KT 05/05 A3031 RMK A01 T00490048  RH  099%=      5-min Rain = 0
KCO1 091450Z 20002KT 05/05 A3031 RMK A01 T00500048  RH  099%=      5-min Rain = 0
KCO1 091451Z 18002KT 05/05 A3031 RMK A01 T00500049  RH  099%=      5-min Rain = 0
KCO1 091452Z 19002KT 05/05 A3031 RMK A01 T00510050  RH  099%=      5-min Rain = 0
KCO1 091453Z 20001KT 05/05 A3031 RMK A01 T00510050  RH  099%=      5-min Rain = 0
KCO1 091454Z 20000KT 05/05 A3031 RMK A01 T00510050  RH  099%=      5-min Rain = 0
KCO1 091455Z 19001KT 05/05 A3031 RMK A01 T00520051  RH  099%=      5-min Rain = 0
KCO1 091456Z 20001KT 05/05 A3031 RMK A01 T00530052  RH  099%=      5-min Rain = 0
KCO1 091457Z 23001KT 05/05 A3031 RMK A01 T00540053  RH  099%=      5-min Rain = 0
KCO1 091458Z 22002KT 06/06 A3031 RMK A01 T00560055  RH  099%=      5-min Rain = 0
KCO1 091459Z 22001KT 06/05 A3031 RMK A01 T00560054  RH  099%=      5-min Rain = 0
KCO1 091500Z 00000KT 06/05 A3031 RMK A01 T00550054  RH  099%=      5-min Rain = 0
KCO1 091501Z 00000KT 06/06 A3031 RMK A01 T00560055  RH  099%=      5-min Rain = 0
KCO1 091502Z 00000KT 06/06 A3031 RMK A01 T00580057  RH  099%=      5-min Rain = 0
KCO1 091503Z 00000KT 06/06 A3031 RMK A01 T00600059  RH  099%=      5-min Rain = 0
KCO1 091504Z 35000KT 06/06 A3032 RMK A01 T00610060  RH  099%=      5-min Rain = 0
KCO1 091505Z 36001KT 06/06 A3032 RMK A01 T00600059  RH  099%=      5-min Rain = 0
KCO1 091506Z 34001KT 06/06 A3032 RMK A01 T00590058  RH  099%=      5-min Rain = 0
KCO1 091507Z 34000KT 06/06 A3032 RMK A01 T00590057  RH  099%=      5-min Rain = 0
KCO1 091508Z 01000KT 06/06 A3032 RMK A01 T00590057  RH  099%=      5-min Rain = 0
KCO1 091509Z 34001KT 06/06 A3032 RMK A01 T00580056  RH  099%=      5-min Rain = 0
KCO1 091510Z 34002KT 06/06 A3032 RMK A01 T00580056  RH  099%=      5-min Rain = 0
KCO1 091511Z 34002KT 06/06 A3032 RMK A01 T00580056  RH  099%=      5-min Rain = 0
KCO1 091512Z 34002KT 06/06 A3032 RMK A01 T00570055  RH  099%=      5-min Rain = 0
KCO1 091513Z 33001KT 06/06 A3032 RMK A01 T00570055  RH  099%=      5-min Rain = 0
KCO1 091514Z 32002KT 06/06 A3032 RMK A01 T00570055  RH  099%=      5-min Rain = 0
KCO1 091515Z 34002KT 06/06 A3032 RMK A01 T00570055  RH  099%=      5-min Rain = 0
KCO1 091516Z 34001KT 06/06 A3032 RMK A01 T00580056  RH  099%=      5-min Rain = 0
KCO1 091517Z 33001KT 06/06 A3032 RMK A01 T00590057  RH  099%=      5-min Rain = 0
KCO1 091518Z 32000KT 06/06 A3032 RMK A01 T00600058  RH  099%=      5-min Rain = 0
KCO1 091519Z 32000KT 06/06 A3032 RMK A01 T00600058  RH  099%=      5-min Rain = 0
KCO1 091520Z 31001KT 06/06 A3032 RMK A01 T00600058  RH  099%=      5-min Rain = 0
KCO1 091521Z 31001KT 06/06 A3032 RMK A01 T00600058  RH  099%=      5-min Rain = 0
KCO1 091522Z 27001KT 06/06 A3032 RMK A01 T00600059  RH  099%=      5-min Rain = 0
KCO1 091523Z 28002KT 06/06 A3032 RMK A01 T00610059  RH  099%=      5-min Rain = 0
KCO1 091524Z 25002KT 06/06 A3032 RMK A01 T00610059  RH  099%=      5-min Rain = 0
KCO1 091525Z 25002KT 06/06 A3032 RMK A01 T00610059  RH  099%=      5-min Rain = 0
KCO1 091526Z 27002KT 06/06 A3032 RMK A01 T00610059  RH  099%=      5-min Rain = 0
KCO1 091527Z 26001KT 06/06 A3032 RMK A01 T00600059  RH  099%=      5-min Rain = 0
KCO1 091528Z 27001KT 06/06 A3032 RMK A01 T00600058  RH  099%=      5-min Rain = 0
KCO1 091529Z 28002KT 06/06 A3032 RMK A01 T00600058  RH  099%=      5-min Rain = 0
KCO1 091530Z 29001KT 06/06 A3032 RMK A01 T00610059  RH  099%=      5-min Rain = 0
KCO1 091531Z 31001KT 06/06 A3032 RMK A01 T00620060  RH  099%=      5-min Rain = 0
KCO1 091532Z 32000KT 06/06 A3032 RMK A01 T00620061  RH  099%=      5-min Rain = 0
KCO1 091533Z 32000KT 06/06 A3032 RMK A01 T00620061  RH  099%=      5-min Rain = 0
KCO1 091534Z 30000KT 06/06 A3032 RMK A01 T00630062  RH  099%=      5-min Rain = 0
KCO1 091535Z 29002KT 06/06 A3032 RMK A01 T00640063  RH  099%=      5-min Rain = 0
KCO1 091536Z 31002KT 07/06 A3032 RMK A01 T00650064  RH  099%=      5-min Rain = 0
KCO1 091537Z 32002KT 07/06 A3032 RMK A01 T00650063  RH  099%=      5-min Rain = 0
KCO1 091538Z 29002KT 06/06 A3032 RMK A01 T00640062  RH  099%=      5-min Rain = 0
KCO1 091539Z 27001KT 06/06 A3032 RMK A01 T00630061  RH  099%=      5-min Rain = 0
KCO1 091540Z 25001KT 06/06 A3032 RMK A01 T00630061  RH  099%=      5-min Rain = 0
KCO1 091541Z 31001KT 06/06 A3032 RMK A01 T00630061  RH  099%=      5-min Rain = 0
KCO1 091542Z 30001KT 06/06 A3032 RMK A01 T00640062  RH  099%=      5-min Rain = 0
KCO1 091543Z 29001KT 06/06 A3032 RMK A01 T00640063  RH  099%=      5-min Rain = 0
KCO1 091544Z 27001KT 07/06 A3032 RMK A01 T00650063  RH  099%=      5-min Rain = 0
KCO1 091545Z 26000KT 06/06 A3032 RMK A01 T00640062  RH  099%=      5-min Rain = 0
KCO1 091546Z 30001KT 07/06 A3032 RMK A01 T00650063  RH  099%=      5-min Rain = 0
KCO1 091547Z 30001KT 07/06 A3032 RMK A01 T00650063  RH  099%=      5-min Rain = 0
KCO1 091548Z 28003KT 07/06 A3032 RMK A01 T00660064  RH  099%=      5-min Rain = 0
KCO1 091549Z 28002KT 07/06 A3032 RMK A01 T00660064  RH  099%=      5-min Rain = 0
KCO1 091550Z 29001KT 07/07 A3032 RMK A01 T00670065  RH  099%=      5-min Rain = 0
KCO1 091551Z 00000KT 07/07 A3032 RMK A01 T00670065  RH  099%=      5-min Rain = 0
KCO1 091552Z 28000KT 07/07 A3032 RMK A01 T00680066  RH  099%=      5-min Rain = 0
KCO1 091553Z 03000KT 07/07 A3032 RMK A01 T00690067  RH  099%=      5-min Rain = 0
KCO1 091554Z 06000KT 07/07 A3032 RMK A01 T00700068  RH  099%=      5-min Rain = 0
KCO1 091555Z 33000KT 07/07 A3032 RMK A01 T00700069  RH  099%=      5-min Rain = 0
KCO1 091556Z 36002KT 07/07 A3032 RMK A01 T00700068  RH  099%=      5-min Rain = 0
KCO1 091557Z 00002KT 07/07 A3032 RMK A01 T00700069  RH  099%=      5-min Rain = 0
KCO1 091558Z 01001KT 07/07 A3032 RMK A01 T00710069  RH  099%=      5-min Rain = 0
KCO1 091559Z 34002KT 07/07 A3032 RMK A01 T00700068  RH  099%=      5-min Rain = 0
KCO1 091600Z 02002KT 07/07 A3032 RMK A01 T00700068  RH  099%=      5-min Rain = 0
KCO1 091601Z 01001KT 07/07 A3032 RMK A01 T00710069  RH  099%=      5-min Rain = 0
KCO1 091602Z 01001KT 07/07 A3032 RMK A01 T00720070  RH  099%=      5-min Rain = 0
KCO1 091603Z 03001KT 07/07 A3032 RMK A01 T00710069  RH  099%=      5-min Rain = 0
KCO1 091604Z 02002KT 07/07 A3032 RMK A01 T00710068  RH  099%=      5-min Rain = 0
KCO1 091605Z 01001KT 07/07 A3032 RMK A01 T00710069  RH  099%=      5-min Rain = 0
KCO1 091606Z 35002KT 07/07 A3032 RMK A01 T00720070  RH  099%=      5-min Rain = 0
KCO1 091607Z 00001KT 07/07 A3032 RMK A01 T00720070  RH  099%=      5-min Rain = 0
KCO1 091608Z 01000KT 07/07 A3032 RMK A01 T00730071  RH  099%=      5-min Rain = 0
KCO1 091609Z 34000KT 07/07 A3032 RMK A01 T00740072  RH  099%=      5-min Rain = 0
KCO1 091610Z 32001KT 07/07 A3032 RMK A01 T00740072  RH  099%=      5-min Rain = 0
KCO1 091611Z 31000KT 07/07 A3032 RMK A01 T00740072  RH  099%=      5-min Rain = 0
KCO1 091612Z 34000KT 08/07 A3031 RMK A01 T00760074  RH  099%=      5-min Rain = 0
KCO1 091613Z 33001KT 08/08 A3031 RMK A01 T00770075  RH  099%=      5-min Rain = 0
KCO1 091614Z 34002KT 08/08 A3031 RMK A01 T00770075  RH  099%=      5-min Rain = 0
KCO1 091615Z 32002KT 08/08 A3032 RMK A01 T00770075  RH  099%=      5-min Rain = 0
KCO1 091616Z 32002KT 08/07 A3032 RMK A01 T00760073  RH  098%=      5-min Rain = 0
KCO1 091617Z 30001KT 08/07 A3032 RMK A01 T00750072  RH  098%=      5-min Rain = 0
KCO1 091618Z 28000KT 08/07 A3032 RMK A01 T00750073  RH  098%=      5-min Rain = 0
KCO1 091619Z 27002KT 08/07 A3032 RMK A01 T00750073  RH  098%=      5-min Rain = 0
KCO1 091620Z 26002KT 08/07 A3032 RMK A01 T00760074  RH  098%=      5-min Rain = 0
KCO1 091621Z 27001KT 08/07 A3032 RMK A01 T00760074  RH  098%=      5-min Rain = 0
KCO1 091622Z 26000KT 08/07 A3032 RMK A01 T00750073  RH  098%=      5-min Rain = 0
KCO1 091623Z 26001KT 08/07 A3032 RMK A01 T00760073  RH  098%=      5-min Rain = 0
KCO1 091624Z 23002KT 08/07 A3032 RMK A01 T00770074  RH  098%=      5-min Rain = 0
KCO1 091625Z 19002KT 08/08 A3032 RMK A01 T00770075  RH  098%=      5-min Rain = 0
KCO1 091626Z 18001KT 08/07 A3032 RMK A01 T00770074  RH  098%=      5-min Rain = 0
KCO1 091627Z 17001KT 08/08 A3032 RMK A01 T00770075  RH  098%=      5-min Rain = 0
KCO1 091628Z 29002KT 08/08 A3032 RMK A01 T00790077  RH  098%=      5-min Rain = 0
KCO1 091629Z 27002KT 08/08 A3032 RMK A01 T00800078  RH  098%=      5-min Rain = 0
KCO1 091630Z 25001KT 08/08 A3032 RMK A01 T00810078  RH  098%=      5-min Rain = 0
KCO1 091631Z 25003KT 08/08 A3032 RMK A01 T00820079  RH  098%=      5-min Rain = 0
KCO1 091632Z 26002KT 08/08 A3032 RMK A01 T00820079  RH  098%=      5-min Rain = 0
KCO1 091633Z 27002KT 08/08 A3032 RMK A01 T00820080  RH  098%=      5-min Rain = 0
KCO1 091634Z 24002KT 08/08 A3032 RMK A01 T00830080  RH  098%=      5-min Rain = 0
KCO1 091635Z 23004KT 08/08 A3032 RMK A01 T00840080  RH  098%=      5-min Rain = 0
KCO1 091636Z 24002KT 08/08 A3032 RMK A01 T00840080  RH  098%=      5-min Rain = 0
KCO1 091637Z 23003KT 09/08 A3032 RMK A01 T00850082  RH  098%=      5-min Rain = 0
KCO1 091638Z 24002KT 09/08 A3031 RMK A01 T00860082  RH  098%=      5-min Rain = 0
KCO1 091639Z 23002KT 09/08 A3031 RMK A01 T00870083  RH  098%=      5-min Rain = 0
KCO1 091640Z 26001KT 09/08 A3031 RMK A01 T00870084  RH  097%=      5-min Rain = 0
KCO1 091641Z 24002KT 09/08 A3031 RMK A01 T00870083  RH  097%=      5-min Rain = 0
KCO1 091642Z 24002KT 09/08 A3031 RMK A01 T00870083  RH  097%=      5-min Rain = 0
KCO1 091643Z 22001KT 09/08 A3031 RMK A01 T00880083  RH  097%=      5-min Rain = 0
KCO1 091644Z 24001KT 09/09 A3031 RMK A01 T00890085  RH  097%=      5-min Rain = 0
KCO1 091645Z 24002KT 09/09 A3031 RMK A01 T00910087  RH  097%=      5-min Rain = 0
KCO1 091646Z 27002KT 09/09 A3031 RMK A01 T00920088  RH  097%=      5-min Rain = 0
KCO1 091647Z 27003KT 09/09 A3031 RMK A01 T00920087  RH  097%=      5-min Rain = 0
KCO1 091648Z 27003KT 09/09 A3031 RMK A01 T00910085  RH  096%=      5-min Rain = 0
KCO1 091649Z 29002KT 09/08 A3031 RMK A01 T00890083  RH  096%=      5-min Rain = 0
KCO1 091650Z 28002KT 09/08 A3031 RMK A01 T00890083  RH  096%=      5-min Rain = 0
KCO1 091651Z 28001KT 09/08 A3031 RMK A01 T00900084  RH  096%=      5-min Rain = 0
KCO1 091652Z 26001KT 09/09 A3031 RMK A01 T00920087  RH  096%=      5-min Rain = 0
KCO1 091653Z 27001KT 10/09 A303 RMK A01 T00950089  RH  096%=      5-min Rain = 0
KCO1 091654Z 26002KT 10/09 A303 RMK A01 T00960090  RH  096%=      5-min Rain = 0
KCO1 091655Z 25001KT 10/09 A303 RMK A01 T00960088  RH  095%=      5-min Rain = 0
KCO1 091656Z 22001KT 10/09 A303 RMK A01 T00950086  RH  094%=      5-min Rain = 0
KCO1 091657Z 23002KT 10/09 A303 RMK A01 T00960088  RH  095%=      5-min Rain = 0
KCO1 091658Z 25001KT 10/09 A303 RMK A01 T00980089  RH  094%=      5-min Rain = 0
KCO1 091659Z 31002KT 10/09 A303 RMK A01 T00990089  RH  094%=      5-min Rain = 0
KCO1 091700Z 32002KT 10/09 A303 RMK A01 T00980087  RH  092%=      5-min Rain = 0
KCO1 091701Z 29002KT 10/09 A303 RMK A01 T00980085  RH  092%=      5-min Rain = 0
KCO1 091702Z 26002KT 10/09 A303 RMK A01 T00980085  RH  092%=      5-min Rain = 0
KCO1 091703Z 28001KT 10/08 A303 RMK A01 T00990084  RH  091%=      5-min Rain = 0
KCO1 091704Z 28001KT 10/08 A303 RMK A01 T00980082  RH  090%=      5-min Rain = 0
KCO1 091705Z 24000KT 10/08 A303 RMK A01 T00980082  RH  090%=      5-min Rain = 0
KCO1 091706Z 27000KT 10/08 A303 RMK A01 T00980082  RH  090%=      5-min Rain = 0
KCO1 091707Z 29002KT 10/09 A303 RMK A01 T01010086  RH  090%=      5-min Rain = 0
KCO1 091708Z 29002KT 10/09 A303 RMK A01 T01030087  RH  090%=      5-min Rain = 0
KCO1 091709Z 28001KT 10/09 A303 RMK A01 T01040085  RH  088%=      5-min Rain = 0
KCO1 091710Z 30002KT 11/08 A303 RMK A01 T01050084  RH  087%=      5-min Rain = 0
KCO1 091711Z 30001KT 10/08 A303 RMK A01 T01030080  RH  085%=      5-min Rain = 0
KCO1 091712Z 30001KT 10/08 A303 RMK A01 T01040080  RH  085%=      5-min Rain = 0
KCO1 091713Z 31000KT 11/08 A303 RMK A01 T01060083  RH  086%=      5-min Rain = 0
KCO1 091714Z 31000KT 11/08 A303 RMK A01 T01070082  RH  085%=      5-min Rain = 0
KCO1 091715Z 02001KT 11/08 A303 RMK A01 T01090083  RH  084%=      5-min Rain = 0
KCO1 091716Z 34001KT 11/08 A303 RMK A01 T01090082  RH  083%=      5-min Rain = 0
KCO1 091717Z 28002KT 11/08 A303 RMK A01 T01110083  RH  083%=      5-min Rain = 0
KCO1 091718Z 24002KT 11/09 A303 RMK A01 T01130086  RH  083%=      5-min Rain = 0
KCO1 091719Z 27001KT 11/08 A303 RMK A01 T01140083  RH  081%=      5-min Rain = 0
KCO1 091720Z 23001KT 11/08 A303 RMK A01 T01140082  RH  081%=      5-min Rain = 0
KCO1 091721Z 26002KT 11/08 A303 RMK A01 T01140081  RH  080%=      5-min Rain = 0
KCO1 091722Z 27003KT 12/08 A3029 RMK A01 T01150083  RH  081%=      5-min Rain = 0
KCO1 091723Z 29003KT 12/08 A3029 RMK A01 T01160083  RH  080%=      5-min Rain = 0
KCO1 091724Z 29002KT 12/08 A3029 RMK A01 T01150082  RH  080%=      5-min Rain = 0
KCO1 091725Z 29002KT 12/08 A3029 RMK A01 T01150082  RH  080%=      5-min Rain = 0
KCO1 091726Z 31002KT 12/08 A3029 RMK A01 T01160084  RH  081%=      5-min Rain = 0
KCO1 091727Z 28000KT 12/08 A3029 RMK A01 T01170084  RH  080%=      5-min Rain = 0
KCO1 091728Z 23003KT 12/09 A3029 RMK A01 T01180086  RH  081%=      5-min Rain = 0
KCO1 091729Z 25003KT 12/08 A3029 RMK A01 T01180084  RH  079%=      5-min Rain = 0
KCO1 091730Z 24002KT 12/08 A3029 RMK A01 T01180082  RH  079%=      5-min Rain = 0
KCO1 091731Z 25001KT 12/08 A3029 RMK A01 T01180083  RH  079%=      5-min Rain = 0
KCO1 091732Z 30002KT 12/08 A3029 RMK A01 T01180082  RH  078%=      5-min Rain = 0
KCO1 091733Z 31003KT 12/08 A3029 RMK A01 T01190082  RH  078%=      5-min Rain = 0
KCO1 091734Z 32003KT 12/08 A3029 RMK A01 T01180082  RH  078%=      5-min Rain = 0
KCO1 091735Z 31003KT 12/08 A3029 RMK A01 T01170083  RH  079%=      5-min Rain = 0
KCO1 091736Z 25001KT 12/08 A3029 RMK A01 T01170084  RH  080%=      5-min Rain = 0
KCO1 091737Z 26002KT 12/09 A3029 RMK A01 T01190085  RH  080%=      5-min Rain = 0
KCO1 091738Z 23002KT 12/08 A3029 RMK A01 T01190082  RH  078%=      5-min Rain = 0
KCO1 091739Z 21002KT 12/08 A3029 RMK A01 T01190083  RH  078%=      5-min Rain = 0
KCO1 091740Z 22001KT 12/08 A3029 RMK A01 T01190082  RH  078%=      5-min Rain = 0
KCO1 091741Z 17001KT 12/08 A3029 RMK A01 T01200082  RH  078%=      5-min Rain = 0
KCO1 091742Z 20001KT 12/08 A3028 RMK A01 T01220084  RH  078%=      5-min Rain = 0
KCO1 091743Z 24001KT 12/08 A3028 RMK A01 T01230084  RH  077%=      5-min Rain = 0
KCO1 091744Z 27003KT 13/09 A3028 RMK A01 T01250088  RH  078%=      5-min Rain = 0
KCO1 091745Z 28003KT 13/09 A3028 RMK A01 T01270086  RH  076%=      5-min Rain = 0
KCO1 091746Z 27002KT 13/09 A3028 RMK A01 T01260085  RH  076%=      5-min Rain = 0
KCO1 091747Z 26002KT 13/09 A3028 RMK A01 T01260085  RH  076%=      5-min Rain = 0
KCO1 091748Z 29001KT 13/09 A3028 RMK A01 T01270086  RH  076%=      5-min Rain = 0
KCO1 091749Z 27002KT 13/09 A3028 RMK A01 T01290092  RH  078%=      5-min Rain = 0
KCO1 091750Z 24001KT 13/09 A3028 RMK A01 T01300089  RH  076%=      5-min Rain = 0
KCO1 091751Z 21001KT 13/09 A3028 RMK A01 T01310088  RH  075%=      5-min Rain = 0
KCO1 091752Z 27001KT 13/09 A3028 RMK A01 T01330088  RH  074%=      5-min Rain = 0
KCO1 091753Z 29002KT 13/09 A3028 RMK A01 T01330086  RH  073%=      5-min Rain = 0
KCO1 091754Z 29002KT 13/09 A3028 RMK A01 T01330088  RH  075%=      5-min Rain = 0
KCO1 091755Z 28003KT 13/09 A3028 RMK A01 T01340090  RH  075%=      5-min Rain = 0
KCO1 091756Z 25003KT 13/09 A3028 RMK A01 T01340091  RH  075%=      5-min Rain = 0
KCO1 091757Z 23003KT 14/09 A3028 RMK A01 T01350091  RH  075%=      5-min Rain = 0
KCO1 091758Z 25003KT 14/09 A3028 RMK A01 T01350088  RH  073%=      5-min Rain = 0
KCO1 091759Z 27002KT 14/09 A3028 RMK A01 T01350090  RH  074%=      5-min Rain = 0
KCO1 091800Z 29003KT 14/09 A3028 RMK A01 T01370091  RH  074%=      5-min Rain = 0
KCO1 091801Z 28003KT 14/09 A3028 RMK A01 T01370090  RH  073%=      5-min Rain = 0
KCO1 091802Z 28003KT 14/09 A3028 RMK A01 T01370090  RH  073%=      5-min Rain = 0
KCO1 091803Z 29003KT 14/09 A3028 RMK A01 T01370089  RH  073%=      5-min Rain = 0
KCO1 091804Z 31002KT 13/08 A3028 RMK A01 T01340084  RH  072%=      5-min Rain = 0
KCO1 091805Z 32002KT 13/09 A3028 RMK A01 T01330086  RH  073%=      5-min Rain = 0
KCO1 091806Z 31002KT 13/09 A3028 RMK A01 T01330088  RH  074%=      5-min Rain = 0
KCO1 091807Z 33001KT 13/09 A3027 RMK A01 T01340088  RH  074%=      5-min Rain = 0
KCO1 091808Z 31001KT 13/09 A3027 RMK A01 T01340088  RH  074%=      5-min Rain = 0
KCO1 091809Z 31003KT 14/09 A3027 RMK A01 T01350089  RH  074%=      5-min Rain = 0
KCO1 091810Z 31001KT 14/09 A3027 RMK A01 T01350087  RH  072%=      5-min Rain = 0
KCO1 091811Z 30001KT 14/09 A3027 RMK A01 T01350088  RH  073%=      5-min Rain = 0
KCO1 091812Z 30002KT 14/09 A3027 RMK A01 T01370090  RH  073%=      5-min Rain = 0
KCO1 091813Z 30003KT 14/09 A3027 RMK A01 T01380089  RH  072%=      5-min Rain = 0
KCO1 091814Z 30004KT 14/09 A3027 RMK A01 T01380089  RH  072%=      5-min Rain = 0
KCO1 091815Z 29003KT 14/09 A3027 RMK A01 T01380087  RH  071%=      5-min Rain = 0
KCO1 091816Z 32001KT 14/09 A3027 RMK A01 T01370089  RH  072%=      5-min Rain = 0
KCO1 091817Z 36001KT 14/09 A3027 RMK A01 T01390092  RH  074%=      5-min Rain = 0
KCO1 091818Z 35002KT 14/09 A3027 RMK A01 T01400092  RH  073%=      5-min Rain = 0
KCO1 091819Z 35002KT 14/09 A3027 RMK A01 T01400089  RH  071%=      5-min Rain = 0
KCO1 091820Z 33003KT 14/09 A3027 RMK A01 T01390088  RH  071%=      5-min Rain = 0
KCO1 091821Z 33002KT 14/09 A3027 RMK A01 T01390088  RH  071%=      5-min Rain = 0
KCO1 091822Z 33002KT 14/09 A3027 RMK A01 T01390087  RH  071%=      5-min Rain = 0
KCO1 091823Z 31002KT 14/09 A3027 RMK A01 T01380090  RH  073%=      5-min Rain = 0
KCO1 091824Z 30001KT 14/10 A3026 RMK A01 T01410096  RH  074%=      5-min Rain = 0
KCO1 091825Z 35002KT 14/09 A3026 RMK A01 T01430092  RH  072%=      5-min Rain = 0
KCO1 091826Z 03003KT 14/09 A3026 RMK A01 T01430090  RH  070%=      5-min Rain = 0
KCO1 091827Z 03002KT 14/09 A3026 RMK A01 T01430088  RH  070%=      5-min Rain = 0
KCO1 091828Z 02002KT 14/09 A3026 RMK A01 T01430089  RH  070%=      5-min Rain = 0
KCO1 091829Z 03002KT 14/09 A3026 RMK A01 T01430092  RH  071%=      5-min Rain = 0
KCO1 091830Z 01001KT 15/09 A3026 RMK A01 T01450092  RH  070%=      5-min Rain = 0
KCO1 091831Z 22001KT 15/09 A3026 RMK A01 T01450090  RH  070%=      5-min Rain = 0
KCO1 091832Z 22001KT 15/09 A3026 RMK A01 T01460094  RH  071%=      5-min Rain = 0
KCO1 091833Z 00000KT 15/09 A3026 RMK A01 T01480090  RH  068%=      5-min Rain = 0
KCO1 091834Z 06001KT 15/09 A3026 RMK A01 T01490091  RH  068%=      5-min Rain = 0
KCO1 091835Z 07001KT 15/09 A3026 RMK A01 T01500093  RH  069%=      5-min Rain = 0
KCO1 091836Z 10001KT 15/09 A3026 RMK A01 T01510093  RH  068%=      5-min Rain = 0
KCO1 091837Z 09001KT 15/09 A3026 RMK A01 T01510090  RH  067%=      5-min Rain = 0
KCO1 091838Z 14001KT 15/09 A3025 RMK A01 T01530091  RH  067%=      5-min Rain = 0
KCO1 091839Z 03001KT 15/09 A3025 RMK A01 T01540089  RH  065%=      5-min Rain = 0
KCO1 091840Z 03001KT 15/09 A3025 RMK A01 T01540091  RH  066%=      5-min Rain = 0
KCO1 091841Z 03001KT 15/09 A3025 RMK A01 T01540091  RH  066%=      5-min Rain = 0
KCO1 091842Z 04002KT 15/09 A3025 RMK A01 T01520089  RH  066%=      5-min Rain = 0
KCO1 091843Z 06002KT 15/09 A3025 RMK A01 T01510089  RH  066%=      5-min Rain = 0
KCO1 091844Z 02001KT 15/09 A3025 RMK A01 T01500090  RH  067%=      5-min Rain = 0
KCO1 091845Z 08002KT 15/09 A3025 RMK A01 T01510091  RH  067%=      5-min Rain = 0
KCO1 091846Z 03002KT 15/09 A3025 RMK A01 T01530094  RH  067%=      5-min Rain = 0
KCO1 091847Z 04003KT 15/09 A3025 RMK A01 T01540093  RH  067%=      5-min Rain = 0
KCO1 091848Z 00003KT 15/09 A3024 RMK A01 T01540091  RH  066%=      5-min Rain = 0
KCO1 091849Z 36002KT 15/09 A3024 RMK A01 T01520088  RH  065%=      5-min Rain = 0
KCO1 091850Z 34002KT 15/09 A3024 RMK A01 T01510090  RH  067%=      5-min Rain = 0
KCO1 091851Z 32002KT 15/09 A3024 RMK A01 T01510091  RH  067%=      5-min Rain = 0
KCO1 091852Z 01002KT 15/09 A3024 RMK A01 T01510093  RH  068%=      5-min Rain = 0
KCO1 091853Z 04002KT 15/09 A3024 RMK A01 T01520091  RH  067%=      5-min Rain = 0
KCO1 091854Z 14002KT 15/09 A3024 RMK A01 T01520091  RH  067%=      5-min Rain = 0
KCO1 091855Z 11001KT 15/10 A3024 RMK A01 T01540096  RH  068%=      5-min Rain = 0
KCO1 091856Z 15002KT 16/10 A3024 RMK A01 T01570096  RH  067%=      5-min Rain = 0
KCO1 091857Z 18002KT 16/09 A3024 RMK A01 T01590093  RH  065%=      5-min Rain = 0
KCO1 091858Z 19001KT 16/09 A3024 RMK A01 T01600092  RH  064%=      5-min Rain = 0
KCO1 091859Z 25001KT 16/09 A3024 RMK A01 T01600092  RH  064%=      5-min Rain = 0
KCO1 091900Z 02000KT 16/09 A3024 RMK A01 T01600091  RH  064%=      5-min Rain = 0
KCO1 091901Z 01003KT 16/10 A3024 RMK A01 T01620098  RH  066%=      5-min Rain = 0
KCO1 091902Z 03003KT 16/09 A3024 RMK A01 T01600092  RH  064%=      5-min Rain = 0
KCO1 091903Z 03003KT 16/09 A3023 RMK A01 T01580091  RH  065%=      5-min Rain = 0
KCO1 091904Z 04002KT 16/09 A3023 RMK A01 T01560091  RH  065%=      5-min Rain = 0
KCO1 091905Z 04002KT 16/09 A3023 RMK A01 T01560093  RH  066%=      5-min Rain = 0
KCO1 091906Z 03002KT 16/09 A3023 RMK A01 T01560091  RH  065%=      5-min Rain = 0
KCO1 091907Z 03001KT 16/09 A3023 RMK A01 T01570094  RH  066%=      5-min Rain = 0
KCO1 091908Z 32001KT 16/09 A3023 RMK A01 T01590093  RH  065%=      5-min Rain = 0
KCO1 091909Z 23001KT 16/09 A3023 RMK A01 T01590093  RH  065%=      5-min Rain = 0
KCO1 091910Z 27000KT 16/10 A3023 RMK A01 T01610097  RH  066%=      5-min Rain = 0
KCO1 091911Z 02002KT 16/10 A3023 RMK A01 T01630098  RH  065%=      5-min Rain = 0
KCO1 091912Z 02002KT 16/10 A3023 RMK A01 T01630097  RH  065%=      5-min Rain = 0
KCO1 091913Z 02003KT 16/10 A3023 RMK A01 T01610095  RH  065%=      5-min Rain = 0
KCO1 091914Z 02002KT 16/10 A3023 RMK A01 T01590095  RH  065%=      5-min Rain = 0
KCO1 091915Z 06001KT 16/09 A3023 RMK A01 T01580093  RH  065%=      5-min Rain = 0
KCO1 091916Z 21001KT 16/09 A3023 RMK A01 T01580093  RH  065%=      5-min Rain = 0
KCO1 091917Z 13001KT 16/10 A3022 RMK A01 T01600096  RH  066%=      5-min Rain = 0
KCO1 091918Z 16003KT 16/10 A3022 RMK A01 T01620097  RH  065%=      5-min Rain = 0
KCO1 091919Z 17003KT 16/09 A3022 RMK A01 T01620094  RH  064%=      5-min Rain = 0
KCO1 091920Z 19002KT 16/10 A3022 RMK A01 T01630098  RH  066%=      5-min Rain = 0
KCO1 091921Z 16001KT 17/10 A3022 RMK A01 T01650101  RH  066%=      5-min Rain = 0
KCO1 091922Z 34002KT 17/11 A3022 RMK A01 T01690105  RH  066%=      5-min Rain = 0
KCO1 091923Z 06003KT 17/10 A3022 RMK A01 T01700104  RH  065%=      5-min Rain = 0
KCO1 091924Z 09003KT 17/10 A3022 RMK A01 T01690098  RH  063%=      5-min Rain = 0
KCO1 091925Z 11002KT 17/10 A3022 RMK A01 T01680096  RH  062%=      5-min Rain = 0
KCO1 091926Z 10002KT 17/10 A3022 RMK A01 T01670097  RH  063%=      5-min Rain = 0
KCO1 091927Z 07003KT 17/10 A3022 RMK A01 T01680098  RH  063%=      5-min Rain = 0
KCO1 091928Z 08002KT 17/10 A3022 RMK A01 T01690098  RH  063%=      5-min Rain = 0
KCO1 091929Z 07001KT 17/10 A3022 RMK A01 T01690096  RH  062%=      5-min Rain = 0
KCO1 091930Z 06002KT 17/10 A3022 RMK A01 T01690097  RH  063%=      5-min Rain = 0
KCO1 091931Z 07004KT 17/10 A3022 RMK A01 T01710101  RH  064%=      5-min Rain = 0
KCO1 091932Z 08003KT 17/10 A3022 RMK A01 T01710098  RH  062%=      5-min Rain = 0
KCO1 091933Z 06003KT 17/10 A3022 RMK A01 T01700097  RH  062%=      5-min Rain = 0
KCO1 091934Z 04002KT 17/10 A3022 RMK A01 T01690097  RH  063%=      5-min Rain = 0
KCO1 091935Z 06003KT 17/10 A3022 RMK A01 T01680100  RH  064%=      5-min Rain = 0
KCO1 091936Z 06002KT 17/10 A3021 RMK A01 T01690101  RH  064%=      5-min Rain = 0
KCO1 091937Z 06003KT 17/10 A3021 RMK A01 T01710104  RH  065%=      5-min Rain = 0
KCO1 091938Z 12001KT 17/10 A3021 RMK A01 T01720101  RH  063%=      5-min Rain = 0
KCO1 091939Z 08000KT 17/10 A3021 RMK A01 T01730101  RH  062%=      5-min Rain = 0
KCO1 091940Z 09001KT 18/11 A3021 RMK A01 T01750105  RH  064%=      5-min Rain = 0
KCO1 091941Z 07000KT 18/10 A3021 RMK A01 T01760102  RH  062%=      5-min Rain = 0
KCO1 091942Z 34000KT 18/10 A3021 RMK A01 T01770102  RH  061%=      5-min Rain = 0
KCO1 091943Z 32000KT 18/10 A3021 RMK A01 T01780098  RH  060%=      5-min Rain = 0
KCO1 091944Z 33001KT 18/10 A3021 RMK A01 T01770103  RH  062%=      5-min Rain = 0
KCO1 091945Z 09001KT 18/11 A3021 RMK A01 T01780105  RH  062%=      5-min Rain = 0
KCO1 091946Z 08000KT 18/10 A3021 RMK A01 T01780100  RH  060%=      5-min Rain = 0
KCO1 091947Z 02000KT 18/10 A302 RMK A01 T01790102  RH  061%=      5-min Rain = 0
KCO1 091948Z 04001KT 18/10 A302 RMK A01 T01800101  RH  060%=      5-min Rain = 0
KCO1 091949Z 05002KT 18/10 A302 RMK A01 T01800101  RH  060%=      5-min Rain = 0
KCO1 091950Z 05003KT 18/10 A302 RMK A01 T01790101  RH  060%=      5-min Rain = 0
KCO1 091951Z 02002KT 18/10 A302 RMK A01 T01760098  RH  060%=      5-min Rain = 0
KCO1 091952Z 34001KT 17/10 A302 RMK A01 T01740099  RH  061%=      5-min Rain = 0
KCO1 091953Z 33002KT 17/10 A302 RMK A01 T01740102  RH  062%=      5-min Rain = 0
KCO1 091954Z 28002KT 17/10 A302 RMK A01 T01740103  RH  063%=      5-min Rain = 0
KCO1 091955Z 26003KT 17/10 A302 RMK A01 T01740104  RH  064%=      5-min Rain = 0
KCO1 091956Z 26002KT 18/10 A302 RMK A01 T01750102  RH  062%=      5-min Rain = 0
KCO1 091957Z 23001KT 18/10 A302 RMK A01 T01760102  RH  062%=      5-min Rain = 0
KCO1 091958Z 24002KT 18/10 A302 RMK A01 T01760102  RH  062%=      5-min Rain = 0
KCO1 091959Z 19001KT 18/11 A302 RMK A01 T01780105  RH  062%=      5-min Rain = 0
KCO1 092000Z 22000KT 18/11 A302 RMK A01 T01800105  RH  062%=      5-min Rain = 0
KCO1 092001Z 17001KT 18/10 A302 RMK A01 T01810103  RH  061%=      5-min Rain = 0
KCO1 092002Z 14002KT 18/10 A302 RMK A01 T01820102  RH  060%=      5-min Rain = 0
KCO1 092003Z 18002KT 18/10 A302 RMK A01 T01830101  RH  059%=      5-min Rain = 0
KCO1 092004Z 17003KT 18/10 A302 RMK A01 T01830101  RH  059%=      5-min Rain = 0
KCO1 092005Z 18003KT 18/10 A3019 RMK A01 T01830103  RH  060%=      5-min Rain = 0
KCO1 092006Z 15002KT 18/10 A3019 RMK A01 T01830101  RH  059%=      5-min Rain = 0
KCO1 092007Z 15002KT 18/10 A3019 RMK A01 T01820099  RH  058%=      5-min Rain = 0
KCO1 092008Z 18001KT 18/10 A3019 RMK A01 T01810099  RH  059%=      5-min Rain = 0
KCO1 092009Z 19001KT 18/10 A3019 RMK A01 T01810100  RH  059%=      5-min Rain = 0
KCO1 092010Z 09002KT 18/10 A3019 RMK A01 T01820103  RH  060%=      5-min Rain = 0
KCO1 092011Z 09002KT 18/10 A3019 RMK A01 T01820099  RH  058%=      5-min Rain = 0
KCO1 092012Z 12002KT 18/10 A3019 RMK A01 T01800099  RH  059%=      5-min Rain = 0
KCO1 092013Z 12002KT 18/10 A3019 RMK A01 T01810104  RH  061%=      5-min Rain = 0
KCO1 092014Z 05001KT 18/10 A3019 RMK A01 T01820102  RH  059%=      5-min Rain = 0
KCO1 092015Z 14000KT 18/10 A3019 RMK A01 T01830101  RH  058%=      5-min Rain = 0
KCO1 092016Z 05001KT 18/10 A3019 RMK A01 T01820102  RH  060%=      5-min Rain = 0
KCO1 092017Z 05003KT 18/10 A3019 RMK A01 T01820104  RH  060%=      5-min Rain = 0
KCO1 092018Z 09003KT 18/10 A3019 RMK A01 T01830102  RH  059%=      5-min Rain = 0
KCO1 092019Z 08004KT 18/10 A3019 RMK A01 T01830103  RH  060%=      5-min Rain = 0
KCO1 092020Z 08004KT 18/10 A3019 RMK A01 T01840103  RH  059%=      5-min Rain = 0
KCO1 092021Z 07002KT 18/10 A3019 RMK A01 T01830101  RH  059%=      5-min Rain = 0
KCO1 092022Z 08002KT 18/10 A3019 RMK A01 T01810100  RH  059%=      5-min Rain = 0
KCO1 092023Z 04002KT 18/10 A3019 RMK A01 T01810102  RH  060%=      5-min Rain = 0
KCO1 092024Z 03001KT 18/10 A3019 RMK A01 T01800102  RH  060%=      5-min Rain = 0
KCO1 092025Z 00000KT 18/10 A3019 RMK A01 T01800102  RH  060%=      5-min Rain = 0
KCO1 092026Z 02002KT 18/10 A3019 RMK A01 T01810102  RH  060%=      5-min Rain = 0
KCO1 092027Z 01002KT 18/11 A3019 RMK A01 T01820105  RH  061%=      5-min Rain = 0
KCO1 092028Z 36002KT 18/11 A3019 RMK A01 T01820105  RH  060%=      5-min Rain = 0
KCO1 092029Z 28001KT 18/10 A3019 RMK A01 T01820103  RH  060%=      5-min Rain = 0
KCO1 092030Z 30001KT 18/10 A3019 RMK A01 T01820103  RH  060%=      5-min Rain = 0
KCO1 092031Z 29001KT 18/10 A3019 RMK A01 T01820102  RH  059%=      5-min Rain = 0
KCO1 092032Z 01001KT 18/10 A3019 RMK A01 T01830102  RH  059%=      5-min Rain = 0
KCO1 092033Z 36001KT 18/10 A3019 RMK A01 T01830103  RH  059%=      5-min Rain = 0
KCO1 092034Z 16001KT 18/11 A3019 RMK A01 T01840106  RH  060%=      5-min Rain = 0
KCO1 092035Z 20001KT 19/10 A3018 RMK A01 T01860104  RH  059%=      5-min Rain = 0
KCO1 092036Z 04000KT 19/10 A3019 RMK A01 T01860104  RH  059%=      5-min Rain = 0
KCO1 092037Z 03002KT 19/11 A3019 RMK A01 T01870105  RH  059%=      5-min Rain = 0
KCO1 092038Z 07001KT 19/11 A3019 RMK A01 T01880107  RH  059%=      5-min Rain = 0
KCO1 092039Z 07001KT 19/11 A3019 RMK A01 T01880106  RH  059%=      5-min Rain = 0
KCO1 092040Z 03001KT 19/11 A3019 RMK A01 T01870106  RH  059%=      5-min Rain = 0
KCO1 092041Z 02000KT 19/11 A3018 RMK A01 T01880107  RH  059%=      5-min Rain = 0
KCO1 092042Z 33000KT 19/10 A3018 RMK A01 T01880104  RH  058%=      5-min Rain = 0
KCO1 092043Z 03000KT 19/10 A3018 RMK A01 T01880104  RH  058%=      5-min Rain = 0
KCO1 092044Z 28001KT 19/10 A3018 RMK A01 T01890102  RH  057%=      5-min Rain = 0
KCO1 092045Z 35001KT 19/10 A3018 RMK A01 T01900104  RH  057%=      5-min Rain = 0
KCO1 092046Z 36002KT 19/11 A3018 RMK A01 T01910106  RH  058%=      5-min Rain = 0
KCO1 092047Z 34002KT 19/11 A3018 RMK A01 T01910106  RH  058%=      5-min Rain = 0
KCO1 092048Z 35002KT 19/11 A3018 RMK A01 T01900105  RH  058%=      5-min Rain = 0
KCO1 092049Z 35002KT 19/11 A3018 RMK A01 T01890108  RH  060%=      5-min Rain = 0
KCO1 092050Z 35001KT 19/11 A3018 RMK A01 T01890110  RH  060%=      5-min Rain = 0
KCO1 092051Z 33001KT 19/11 A3018 RMK A01 T01890109  RH  060%=      5-min Rain = 0
KCO1 092052Z 32000KT 19/11 A3018 RMK A01 T01890106  RH  059%=      5-min Rain = 0
KCO1 092053Z 35002KT 19/11 A3018 RMK A01 T01890108  RH  059%=      5-min Rain = 0
KCO1 092054Z 34002KT 19/11 A3018 RMK A01 T01900110  RH  060%=      5-min Rain = 0
KCO1 092055Z 33002KT 19/11 A3018 RMK A01 T01900113  RH  061%=      5-min Rain = 0
KCO1 092056Z 35003KT 19/11 A3017 RMK A01 T01900112  RH  060%=      5-min Rain = 0
KCO1 092057Z 01003KT 19/11 A3017 RMK A01 T01900111  RH  060%=      5-min Rain = 0
KCO1 092058Z 07003KT 19/11 A3017 RMK A01 T01900109  RH  060%=      5-min Rain = 0
KCO1 092059Z 03002KT 19/11 A3017 RMK A01 T01900109  RH  059%=      5-min Rain = 0
KCO1 092100Z 00002KT 19/11 A3017 RMK A01 T01900109  RH  059%=      5-min Rain = 0
KCO1 092101Z 36002KT 19/10 A3017 RMK A01 T01900104  RH  057%=      5-min Rain = 0
KCO1 092102Z 35001KT 19/10 A3017 RMK A01 T01890104  RH  058%=      5-min Rain = 0
KCO1 092103Z 08002KT 19/11 A3017 RMK A01 T01880106  RH  059%=      5-min Rain = 0
KCO1 092104Z 06004KT 19/11 A3017 RMK A01 T01890105  RH  058%=      5-min Rain = 0
KCO1 092105Z 06003KT 19/11 A3017 RMK A01 T01900106  RH  058%=      5-min Rain = 0
KCO1 092106Z 07003KT 19/10 A3017 RMK A01 T01900104  RH  057%=      5-min Rain = 0
KCO1 092107Z 06004KT 19/11 A3017 RMK A01 T01910107  RH  058%=      5-min Rain = 0
KCO1 092108Z 09003KT 19/10 A3017 RMK A01 T01920104  RH  057%=      5-min Rain = 0
KCO1 092109Z 09003KT 19/11 A3017 RMK A01 T01920105  RH  057%=      5-min Rain = 0
KCO1 092110Z 11003KT 19/11 A3016 RMK A01 T01930105  RH  057%=      5-min Rain = 0
KCO1 092111Z 09002KT 19/10 A3016 RMK A01 T01940104  RH  056%=      5-min Rain = 0
KCO1 092112Z 03001KT 19/11 A3016 RMK A01 T01940108  RH  058%=      5-min Rain = 0
KCO1 092113Z 36002KT 19/11 A3016 RMK A01 T01940108  RH  057%=      5-min Rain = 0
KCO1 092114Z 04004KT 20/11 A3016 RMK A01 T01950113  RH  059%=      5-min Rain = 0
KCO1 092115Z 02003KT 20/11 A3016 RMK A01 T01960109  RH  057%=      5-min Rain = 0
KCO1 092116Z 03004KT 20/11 A3016 RMK A01 T01950107  RH  057%=      5-min Rain = 0
KCO1 092117Z 04004KT 19/11 A3016 RMK A01 T01940110  RH  059%=      5-min Rain = 0
KCO1 092118Z 03004KT 19/11 A3016 RMK A01 T01940110  RH  058%=      5-min Rain = 0
KCO1 092119Z 01004KT 19/11 A3016 RMK A01 T01930107  RH  057%=      5-min Rain = 0
KCO1 092120Z 01003KT 19/11 A3016 RMK A01 T01930107  RH  058%=      5-min Rain = 0
KCO1 092121Z 02004KT 19/11 A3016 RMK A01 T01930110  RH  059%=      5-min Rain = 0
KCO1 092122Z 03003KT 19/11 A3016 RMK A01 T01920111  RH  059%=      5-min Rain = 0
KCO1 092123Z 08005KT 19/11 A3016 RMK A01 T01940112  RH  059%=      5-min Rain = 0
KCO1 092124Z 07004KT 20/11 A3016 RMK A01 T01960107  RH  056%=      5-min Rain = 0
KCO1 092125Z 05004KT 20/11 A3016 RMK A01 T01960108  RH  057%=      5-min Rain = 0
KCO1 092126Z 04004KT 20/11 A3016 RMK A01 T01950106  RH  056%=      5-min Rain = 0
KCO1 092127Z 05003KT 19/11 A3016 RMK A01 T01940106  RH  056%=      5-min Rain = 0
KCO1 092128Z 04003KT 19/11 A3016 RMK A01 T01940107  RH  057%=      5-min Rain = 0
KCO1 092129Z 01003KT 19/11 A3016 RMK A01 T01940107  RH  057%=      5-min Rain = 0
KCO1 092130Z 01002KT 20/11 A3016 RMK A01 T01950109  RH  057%=      5-min Rain = 0
KCO1 092131Z 00002KT 20/11 A3015 RMK A01 T01950109  RH  058%=      5-min Rain = 0
KCO1 092132Z 06003KT 20/11 A3015 RMK A01 T01960109  RH  057%=      5-min Rain = 0
KCO1 092133Z 04002KT 20/10 A3015 RMK A01 T01960104  RH  055%=      5-min Rain = 0
KCO1 092134Z 06002KT 20/11 A3015 RMK A01 T01960105  RH  056%=      5-min Rain = 0
KCO1 092135Z 04005KT 20/11 A3015 RMK A01 T01960108  RH  057%=      5-min Rain = 0
KCO1 092136Z 03006KT 20/11 A3015 RMK A01 T01970111  RH  058%=      5-min Rain = 0
KCO1 092137Z 03005KT 20/11 A3015 RMK A01 T01970108  RH  057%=      5-min Rain = 0
KCO1 092138Z 02005KT 20/11 A3015 RMK A01 T01960109  RH  057%=      5-min Rain = 0
KCO1 092139Z 04005KT 20/11 A3016 RMK A01 T01960111  RH  058%=      5-min Rain = 0
KCO1 092140Z 04004KT 20/11 A3016 RMK A01 T01970111  RH  058%=      5-min Rain = 0
KCO1 092141Z 04003KT 20/11 A3016 RMK A01 T01980110  RH  057%=      5-min Rain = 0
KCO1 092142Z 04004KT 20/11 A3016 RMK A01 T01990109  RH  056%=      5-min Rain = 0
KCO1 092143Z 03005KT 20/11 A3016 RMK A01 T01980106  RH  055%=      5-min Rain = 0
KCO1 092144Z 03004KT 20/11 A3015 RMK A01 T01970106  RH  056%=      5-min Rain = 0
KCO1 092145Z 04002KT 20/11 A3015 RMK A01 T01960107  RH  056%=      5-min Rain = 0
KCO1 092146Z 08002KT 20/11 A3015 RMK A01 T01960109  RH  057%=      5-min Rain = 0
KCO1 092147Z 06001KT 20/11 A3015 RMK A01 T01970105  RH  055%=      5-min Rain = 0
KCO1 092148Z 03003KT 20/11 A3015 RMK A01 T01980107  RH  056%=      5-min Rain = 0
KCO1 092149Z 02004KT 20/11 A3015 RMK A01 T01990110  RH  056%=      5-min Rain = 0
KCO1 092150Z 04004KT 20/11 A3015 RMK A01 T01990112  RH  057%=      5-min Rain = 0
KCO1 092151Z 05005KT 20/11 A3015 RMK A01 T01990112  RH  057%=      5-min Rain = 0
KCO1 092152Z 05004KT 20/11 A3015 RMK A01 T02000113  RH  057%=      5-min Rain = 0
KCO1 092153Z 09004KT 20/11 A3015 RMK A01 T02010110  RH  056%=      5-min Rain = 0
KCO1 092154Z 09005KT 20/11 A3015 RMK A01 T02010108  RH  055%=      5-min Rain = 0
KCO1 092155Z 08004KT 20/11 A3015 RMK A01 T02010107  RH  055%=      5-min Rain = 0
KCO1 092156Z 06005KT 20/11 A3015 RMK A01 T02000107  RH  055%=      5-min Rain = 0
KCO1 092157Z 06005KT 20/11 A3015 RMK A01 T02000107  RH  055%=      5-min Rain = 0
KCO1 092158Z 05004KT 20/11 A3015 RMK A01 T02000111  RH  057%=      5-min Rain = 0
KCO1 092159Z 03004KT 20/11 A3015 RMK A01 T01990109  RH  056%=      5-min Rain = 0
KCO1 092200Z 03003KT 20/11 A3015 RMK A01 T01990110  RH  057%=      5-min Rain = 0
KCO1 092201Z 02002KT 20/10 A3015 RMK A01 T01980104  RH  055%=      5-min Rain = 0
KCO1 092202Z 03001KT 20/10 A3015 RMK A01 T01970104  RH  055%=      5-min Rain = 0
KCO1 092203Z 02003KT 20/11 A3015 RMK A01 T01970105  RH  056%=      5-min Rain = 0
KCO1 092204Z 02002KT 20/11 A3015 RMK A01 T01960105  RH  055%=      5-min Rain = 0
KCO1 092205Z 00001KT 20/11 A3015 RMK A01 T01960107  RH  056%=      5-min Rain = 0
KCO1 092206Z 05003KT 20/11 A3015 RMK A01 T01960107  RH  056%=      5-min Rain = 0
KCO1 092207Z 06003KT 20/11 A3015 RMK A01 T01960109  RH  057%=      5-min Rain = 0
KCO1 092208Z 06004KT 20/11 A3015 RMK A01 T01970107  RH  056%=      5-min Rain = 0
KCO1 092209Z 07002KT 20/11 A3015 RMK A01 T01970107  RH  056%=      5-min Rain = 0
KCO1 092210Z 06001KT 20/11 A3015 RMK A01 T01970105  RH  055%=      5-min Rain = 0
KCO1 092211Z 04002KT 20/11 A3015 RMK A01 T01970105  RH  055%=      5-min Rain = 0
KCO1 092212Z 02003KT 20/11 A3015 RMK A01 T01980109  RH  056%=      5-min Rain = 0
KCO1 092213Z 03003KT 20/11 A3015 RMK A01 T01980110  RH  057%=      5-min Rain = 0
KCO1 092214Z 03004KT 20/11 A3015 RMK A01 T01970110  RH  057%=      5-min Rain = 0
KCO1 092215Z 04004KT 20/11 A3015 RMK A01 T01960110  RH  057%=      5-min Rain = 0
KCO1 092216Z 04003KT 20/11 A3015 RMK A01 T01960108  RH  057%=      5-min Rain = 0
KCO1 092217Z 04002KT 20/11 A3015 RMK A01 T01960106  RH  056%=      5-min Rain = 0
KCO1 092218Z 04002KT 20/11 A3015 RMK A01 T01970105  RH  055%=      5-min Rain = 0
KCO1 092219Z 04003KT 20/11 A3015 RMK A01 T01970107  RH  056%=      5-min Rain = 0
KCO1 092220Z 02004KT 20/11 A3015 RMK A01 T01970108  RH  057%=      5-min Rain = 0
KCO1 092221Z 02004KT 20/11 A3015 RMK A01 T01970112  RH  058%=      5-min Rain = 0
KCO1 092222Z 04003KT 20/11 A3015 RMK A01 T01970109  RH  057%=      5-min Rain = 0
KCO1 092223Z 04003KT 20/11 A3015 RMK A01 T01960108  RH  057%=      5-min Rain = 0
KCO1 092224Z 04002KT 20/11 A3015 RMK A01 T01960107  RH  056%=      5-min Rain = 0
KCO1 092225Z 06002KT 20/11 A3015 RMK A01 T01950107  RH  056%=      5-min Rain = 0
KCO1 092226Z 05003KT 20/11 A3014 RMK A01 T01960110  RH  058%=      5-min Rain = 0
KCO1 092227Z 02004KT 20/11 A3014 RMK A01 T01970112  RH  058%=      5-min Rain = 0
KCO1 092228Z 02004KT 20/11 A3014 RMK A01 T01980112  RH  058%=      5-min Rain = 0
KCO1 092229Z 02003KT 20/11 A3014 RMK A01 T01980108  RH  056%=      5-min Rain = 0
KCO1 092230Z 06001KT 20/11 A3014 RMK A01 T01970106  RH  056%=      5-min Rain = 0
KCO1 092231Z 36001KT 20/11 A3014 RMK A01 T01970107  RH  056%=      5-min Rain = 0
KCO1 092232Z 05002KT 20/11 A3014 RMK A01 T01970108  RH  056%=      5-min Rain = 0
KCO1 092233Z 07005KT 20/11 A3014 RMK A01 T01990108  RH  056%=      5-min Rain = 0
KCO1 092234Z 07005KT 20/11 A3014 RMK A01 T01990108  RH  055%=      5-min Rain = 0
KCO1 092235Z 08005KT 20/11 A3014 RMK A01 T02000108  RH  055%=      5-min Rain = 0
KCO1 092236Z 10003KT 20/11 A3014 RMK A01 T01990107  RH  055%=      5-min Rain = 0
KCO1 092237Z 09002KT 20/11 A3014 RMK A01 T01990108  RH  056%=      5-min Rain = 0
KCO1 092238Z 04003KT 20/11 A3014 RMK A01 T01980110  RH  057%=      5-min Rain = 0
KCO1 092239Z 04004KT 20/11 A3014 RMK A01 T01990110  RH  056%=      5-min Rain = 0
KCO1 092240Z 04003KT 20/11 A3014 RMK A01 T01970109  RH  056%=      5-min Rain = 0
KCO1 092241Z 05003KT 20/11 A3014 RMK A01 T01970107  RH  056%=      5-min Rain = 0
KCO1 092242Z 06004KT 20/11 A3015 RMK A01 T01960107  RH  056%=      5-min Rain = 0
KCO1 092243Z 07004KT 20/11 A3015 RMK A01 T01950106  RH  056%=      5-min Rain = 0
KCO1 092244Z 07004KT 19/11 A3015 RMK A01 T01940106  RH  057%=      5-min Rain = 0
KCO1 092245Z 06005KT 19/11 A3015 RMK A01 T01940107  RH  057%=      5-min Rain = 0
KCO1 092246Z 07004KT 19/11 A3014 RMK A01 T01940107  RH  057%=      5-min Rain = 0
KCO1 092247Z 06004KT 19/11 A3014 RMK A01 T01940108  RH  057%=      5-min Rain = 0
KCO1 092248Z 06002KT 19/11 A3014 RMK A01 T01940108  RH  057%=      5-min Rain = 0
KCO1 092249Z 05002KT 19/11 A3014 RMK A01 T01940108  RH  057%=      5-min Rain = 0
KCO1 092250Z 04002KT 19/11 A3014 RMK A01 T01940107  RH  057%=      5-min Rain = 0
KCO1 092251Z 03003KT 19/11 A3014 RMK A01 T01930108  RH  058%=      5-min Rain = 0
KCO1 092252Z 03003KT 19/11 A3014 RMK A01 T01930107  RH  057%=      5-min Rain = 0
KCO1 092253Z 02002KT 19/11 A3014 RMK A01 T01930106  RH  057%=      5-min Rain = 0
KCO1 092254Z 04002KT 19/11 A3014 RMK A01 T01930105  RH  057%=      5-min Rain = 0
KCO1 092255Z 03003KT 19/11 A3014 RMK A01 T01930108  RH  058%=      5-min Rain = 0
KCO1 092256Z 03004KT 19/11 A3014 RMK A01 T01920111  RH  059%=      5-min Rain = 0
KCO1 092257Z 04004KT 19/11 A3014 RMK A01 T01920109  RH  059%=      5-min Rain = 0
KCO1 092258Z 04004KT 19/11 A3014 RMK A01 T01920109  RH  059%=      5-min Rain = 0
KCO1 092259Z 04004KT 19/11 A3014 RMK A01 T01910111  RH  060%=      5-min Rain = 0
KCO1 092300Z 03005KT 19/11 A3014 RMK A01 T01910112  RH  060%=      5-min Rain = 0
KCO1 092301Z 02005KT 19/11 A3014 RMK A01 T01910110  RH  059%=      5-min Rain = 0
KCO1 092302Z 02005KT 19/11 A3014 RMK A01 T01900109  RH  059%=      5-min Rain = 0
KCO1 092303Z 03004KT 19/11 A3014 RMK A01 T01900111  RH  060%=      5-min Rain = 0
KCO1 092304Z 04003KT 19/11 A3014 RMK A01 T01900114  RH  061%=      5-min Rain = 0
KCO1 092305Z 04003KT 19/11 A3014 RMK A01 T01900113  RH  061%=      5-min Rain = 0
KCO1 092306Z 04004KT 19/11 A3014 RMK A01 T01900114  RH  061%=      5-min Rain = 0
KCO1 092307Z 04005KT 19/11 A3014 RMK A01 T01900111  RH  060%=      5-min Rain = 0
KCO1 092308Z 05004KT 19/11 A3014 RMK A01 T01900110  RH  060%=      5-min Rain = 0
KCO1 092309Z 04004KT 19/11 A3014 RMK A01 T01900110  RH  060%=      5-min Rain = 0
KCO1 092310Z 04004KT 19/11 A3014 RMK A01 T01900109  RH  059%=      5-min Rain = 0
KCO1 092311Z 05004KT 19/11 A3014 RMK A01 T01900109  RH  060%=      5-min Rain = 0
KCO1 092312Z 04004KT 19/11 A3014 RMK A01 T01890110  RH  060%=      5-min Rain = 0
KCO1 092313Z 04004KT 19/11 A3014 RMK A01 T01890110  RH  060%=      5-min Rain = 0
KCO1 092314Z 04004KT 19/11 A3014 RMK A01 T01890110  RH  060%=      5-min Rain = 0
KCO1 092315Z 05004KT 19/11 A3014 RMK A01 T01890109  RH  060%=      5-min Rain = 0
KCO1 092316Z 05004KT 19/11 A3014 RMK A01 T01890111  RH  060%=      5-min Rain = 0
KCO1 092317Z 05005KT 19/11 A3014 RMK A01 T01890111  RH  060%=      5-min Rain = 0
KCO1 092318Z 05004KT 19/11 A3014 RMK A01 T01890111  RH  061%=      5-min Rain = 0
KCO1 092319Z 06004KT 19/11 A3014 RMK A01 T01890111  RH  060%=      5-min Rain = 0
KCO1 092320Z 06005KT 19/11 A3014 RMK A01 T01890111  RH  061%=      5-min Rain = 0
KCO1 092321Z 05004KT 19/11 A3014 RMK A01 T01880109  RH  060%=      5-min Rain = 0
KCO1 092322Z 06004KT 19/11 A3014 RMK A01 T01880110  RH  060%=      5-min Rain = 0
KCO1 092323Z 06004KT 19/11 A3014 RMK A01 T01880109  RH  060%=      5-min Rain = 0
KCO1 092324Z 06003KT 19/11 A3014 RMK A01 T01880108  RH  060%=      5-min Rain = 0
KCO1 092325Z 06004KT 19/11 A3014 RMK A01 T01890109  RH  060%=      5-min Rain = 0
KCO1 092326Z 06004KT 19/11 A3014 RMK A01 T01890110  RH  060%=      5-min Rain = 0
KCO1 092327Z 06004KT 19/11 A3014 RMK A01 T01890111  RH  060%=      5-min Rain = 0
KCO1 092328Z 06004KT 19/11 A3014 RMK A01 T01880111  RH  061%=      5-min Rain = 0
KCO1 092329Z 06004KT 19/11 A3014 RMK A01 T01880111  RH  061%=      5-min Rain = 0
KCO1 092330Z 05004KT 19/11 A3014 RMK A01 T01870112  RH  062%=      5-min Rain = 0
KCO1 092331Z 05003KT 19/11 A3014 RMK A01 T01860112  RH  062%=      5-min Rain = 0
KCO1 092332Z 05003KT 19/11 A3014 RMK A01 T01860113  RH  062%=      5-min Rain = 0
KCO1 092333Z 06003KT 19/12 A3014 RMK A01 T01860115  RH  064%=      5-min Rain = 0
KCO1 092334Z 06003KT 19/12 A3014 RMK A01 T01850116  RH  064%=      5-min Rain = 0
KCO1 092335Z 06003KT 19/12 A3014 RMK A01 T01850116  RH  064%=      5-min Rain = 0
KCO1 092336Z 05003KT 18/12 A3014 RMK A01 T01840116  RH  064%=      5-min Rain = 0
KCO1 092337Z 06003KT 18/12 A3014 RMK A01 T01830116  RH  065%=      5-min Rain = 0
KCO1 092338Z 05003KT 18/12 A3014 RMK A01 T01830116  RH  065%=      5-min Rain = 0
KCO1 092339Z 05003KT 18/12 A3014 RMK A01 T01820115  RH  065%=      5-min Rain = 0
KCO1 092340Z 05003KT 18/12 A3014 RMK A01 T01820116  RH  065%=      5-min Rain = 0
KCO1 092341Z 05003KT 18/12 A3014 RMK A01 T01810116  RH  066%=      5-min Rain = 0
KCO1 092342Z 04003KT 18/12 A3014 RMK A01 T01810116  RH  066%=      5-min Rain = 0
KCO1 092343Z 04003KT 18/12 A3014 RMK A01 T01810117  RH  066%=      5-min Rain = 0
KCO1 092344Z 04002KT 18/12 A3014 RMK A01 T01800118  RH  067%=      5-min Rain = 0
KCO1 092345Z 04003KT 18/12 A3014 RMK A01 T01800119  RH  068%=      5-min Rain = 0
KCO1 092346Z 04003KT 18/12 A3014 RMK A01 T01790118  RH  067%=      5-min Rain = 0
KCO1 092347Z 04003KT 18/12 A3014 RMK A01 T01790117  RH  067%=      5-min Rain = 0
KCO1 092348Z 04003KT 18/12 A3014 RMK A01 T01780116  RH  067%=      5-min Rain = 0
KCO1 092349Z 05003KT 18/12 A3014 RMK A01 T01780115  RH  067%=      5-min Rain = 0
KCO1 092350Z 05003KT 18/11 A3014 RMK A01 T01770114  RH  067%=      5-min Rain = 0
KCO1 092351Z 05003KT 18/12 A3014 RMK A01 T01770115  RH  067%=      5-min Rain = 0
KCO1 092352Z 05003KT 18/12 A3014 RMK A01 T01770115  RH  067%=      5-min Rain = 0
KCO1 092353Z 05003KT 18/12 A3014 RMK A01 T01760115  RH  067%=      5-min Rain = 0
KCO1 092354Z 05003KT 18/12 A3014 RMK A01 T01760115  RH  068%=      5-min Rain = 0
KCO1 092355Z 05004KT 18/12 A3014 RMK A01 T01750116  RH  068%=      5-min Rain = 0
KCO1 092356Z 05004KT 17/12 A3014 RMK A01 T01740116  RH  069%=      5-min Rain = 0
KCO1 092357Z 05004KT 17/12 A3014 RMK A01 T01740116  RH  069%=      5-min Rain = 0
KCO1 092358Z 05004KT 17/12 A3014 RMK A01 T01730116  RH  069%=      5-min Rain = 0
KCO1 092359Z 05003KT 17/12 A3014 RMK A01 T01720117  RH  070%=      5-min Rain = 0
KCO1 100000Z 05003KT 17/12 A3014 RMK A01 T01720116  RH  070%=      5-min Rain = 0
KCO1 100001Z 05003KT 17/12 A3014 RMK A01 T01710115  RH  069%=      5-min Rain = 0
KCO1 100002Z 05004KT 17/12 A3014 RMK A01 T01710115  RH  069%=      5-min Rain = 0
KCO1 100003Z 05003KT 17/11 A3014 RMK A01 T01710114  RH  069%=      5-min Rain = 0
KCO1 100004Z 05004KT 17/11 A3014 RMK A01 T01700114  RH  069%=      5-min Rain = 0
KCO1 100005Z 05004KT 17/12 A3014 RMK A01 T01700115  RH  070%=      5-min Rain = 0
KCO1 100006Z 05004KT 17/12 A3014 RMK A01 T01700115  RH  070%=      5-min Rain = 0
KCO1 100007Z 05004KT 17/12 A3014 RMK A01 T01690115  RH  070%=      5-min Rain = 0
KCO1 100008Z 04004KT 17/12 A3014 RMK A01 T01690115  RH  070%=      5-min Rain = 0
KCO1 100009Z 04004KT 17/11 A3013 RMK A01 T01680114  RH  071%=      5-min Rain = 0
KCO1 100010Z 04004KT 17/12 A3013 RMK A01 T01680115  RH  071%=      5-min Rain = 0
KCO1 100011Z 04004KT 17/12 A3013 RMK A01 T01670115  RH  071%=      5-min Rain = 0
KCO1 100012Z 04004KT 17/12 A3013 RMK A01 T01660115  RH  072%=      5-min Rain = 0
KCO1 100013Z 04004KT 17/12 A3013 RMK A01 T01660115  RH  072%=      5-min Rain = 0
KCO1 100014Z 04004KT 17/12 A3013 RMK A01 T01650115  RH  072%=      5-min Rain = 0
KCO1 100015Z 04004KT 17/12 A3013 RMK A01 T01650115  RH  072%=      5-min Rain = 0
KCO1 100016Z 04004KT 17/12 A3013 RMK A01 T01650115  RH  072%=      5-min Rain = 0
KCO1 100017Z 05004KT 16/11 A3013 RMK A01 T01640114  RH  072%=      5-min Rain = 0
KCO1 100018Z 04004KT 16/12 A3013 RMK A01 T01640115  RH  073%=      5-min Rain = 0
KCO1 100019Z 04004KT 16/12 A3013 RMK A01 T01640115  RH  073%=      5-min Rain = 0
KCO1 100020Z 04004KT 16/11 A3013 RMK A01 T01630114  RH  073%=      5-min Rain = 0
KCO1 100021Z 04004KT 16/12 A3013 RMK A01 T01630115  RH  073%=      5-min Rain = 0
KCO1 100022Z 05004KT 16/11 A3014 RMK A01 T01630114  RH  073%=      5-min Rain = 0
KCO1 100023Z 05004KT 16/11 A3014 RMK A01 T01630114  RH  073%=      5-min Rain = 0
KCO1 100024Z 05003KT 16/11 A3014 RMK A01 T01630114  RH  072%=      5-min Rain = 0
KCO1 100025Z 04003KT 16/11 A3014 RMK A01 T01630113  RH  072%=      5-min Rain = 0
KCO1 100026Z 05003KT 16/11 A3014 RMK A01 T01630113  RH  072%=      5-min Rain = 0
KCO1 100027Z 05003KT 16/11 A3014 RMK A01 T01630113  RH  073%=      5-min Rain = 0
KCO1 100028Z 05003KT 16/11 A3013 RMK A01 T01620113  RH  073%=      5-min Rain = 0
KCO1 100029Z 05004KT 16/11 A3013 RMK A01 T01620113  RH  073%=      5-min Rain = 0
KCO1 100030Z 05004KT 16/11 A3013 RMK A01 T01620112  RH  072%=      5-min Rain = 0
KCO1 100031Z 05004KT 16/11 A3013 RMK A01 T01630113  RH  072%=      5-min Rain = 0
KCO1 100032Z 05004KT 16/11 A3013 RMK A01 T01630112  RH  072%=      5-min Rain = 0
KCO1 100033Z 05004KT 16/11 A3013 RMK A01 T01630112  RH  072%=      5-min Rain = 0
KCO1 100034Z 05004KT 16/11 A3013 RMK A01 T01630112  RH  072%=      5-min Rain = 0
KCO1 100035Z 05004KT 16/11 A3013 RMK A01 T01630112  RH  072%=      5-min Rain = 0
KCO1 100036Z 05004KT 16/11 A3013 RMK A01 T01630113  RH  072%=      5-min Rain = 0
KCO1 100037Z 05004KT 16/11 A3013 RMK A01 T01620113  RH  073%=      5-min Rain = 0
KCO1 100038Z 05004KT 16/11 A3013 RMK A01 T01620113  RH  073%=      5-min Rain = 0
KCO1 100039Z 05004KT 16/11 A3013 RMK A01 T01620113  RH  073%=      5-min Rain = 0
KCO1 100040Z 05004KT 16/11 A3013 RMK A01 T01610113  RH  073%=      5-min Rain = 0
KCO1 100041Z 05004KT 16/11 A3013 RMK A01 T01610114  RH  074%=      5-min Rain = 0
KCO1 100042Z 05004KT 16/11 A3013 RMK A01 T01610114  RH  074%=      5-min Rain = 0
KCO1 100043Z 05003KT 16/11 A3013 RMK A01 T01600114  RH  074%=      5-min Rain = 0
KCO1 100044Z 05003KT 16/11 A3013 RMK A01 T01600114  RH  074%=      5-min Rain = 0
KCO1 100045Z 05003KT 16/11 A3013 RMK A01 T01590114  RH  074%=      5-min Rain = 0
KCO1 100046Z 05003KT 16/11 A3013 RMK A01 T01590114  RH  075%=      5-min Rain = 0
KCO1 100047Z 05003KT 16/11 A3013 RMK A01 T01580113  RH  075%=      5-min Rain = 0
KCO1 100048Z 05004KT 16/11 A3013 RMK A01 T01580113  RH  075%=      5-min Rain = 0
KCO1 100049Z 05004KT 16/11 A3013 RMK A01 T01580113  RH  075%=      5-min Rain = 0
KCO1 100050Z 05004KT 16/11 A3013 RMK A01 T01580113  RH  075%=      5-min Rain = 0
KCO1 100051Z 05004KT 16/11 A3013 RMK A01 T01580113  RH  075%=      5-min Rain = 0
KCO1 100052Z 05004KT 16/11 A3013 RMK A01 T01580113  RH  075%=      5-min Rain = 0
KCO1 100053Z 05004KT 16/11 A3013 RMK A01 T01580113  RH  075%=      5-min Rain = 0
KCO1 100054Z 05004KT 16/11 A3013 RMK A01 T01570112  RH  074%=      5-min Rain = 0
KCO1 100055Z 05004KT 16/11 A3013 RMK A01 T01580112  RH  074%=      5-min Rain = 0
KCO1 100056Z 05004KT 16/11 A3013 RMK A01 T01580112  RH  074%=      5-min Rain = 0
KCO1 100057Z 05004KT 16/11 A3013 RMK A01 T01580112  RH  074%=      5-min Rain = 0
KCO1 100058Z 05004KT 16/11 A3013 RMK A01 T01580112  RH  074%=      5-min Rain = 0
KCO1 100059Z 05004KT 16/11 A3013 RMK A01 T01580112  RH  074%=      5-min Rain = 0
KCO1 100100Z 05004KT 16/11 A3013 RMK A01 T01580113  RH  075%=      5-min Rain = 0
KCO1 100101Z 05004KT 16/11 A3013 RMK A01 T01570113  RH  075%=      5-min Rain = 0
KCO1 100102Z 05004KT 16/11 A3013 RMK A01 T01570113  RH  075%=      5-min Rain = 0
KCO1 100103Z 05004KT 16/11 A3013 RMK A01 T01560113  RH  075%=      5-min Rain = 0
KCO1 100104Z 04004KT 16/11 A3013 RMK A01 T01560113  RH  076%=      5-min Rain = 0
KCO1 100105Z 04004KT 16/12 A3013 RMK A01 T01560115  RH  077%=      5-min Rain = 0
KCO1 100106Z 04004KT 16/12 A3013 RMK A01 T01550116  RH  077%=      5-min Rain = 0
KCO1 100107Z 04004KT 16/12 A3013 RMK A01 T01550116  RH  078%=      5-min Rain = 0
KCO1 100108Z 05004KT 15/11 A3013 RMK A01 T01540114  RH  077%=      5-min Rain = 0
KCO1 100109Z 05004KT 15/11 A3013 RMK A01 T01530112  RH  077%=      5-min Rain = 0
KCO1 100110Z 05004KT 15/11 A3013 RMK A01 T01530112  RH  076%=      5-min Rain = 0
KCO1 100116Z 05004KT 15/11 A3013 RMK A01 T01520112  RH  077%=      5-min Rain = 0
KCO1 100117Z 05004KT 15/11 A3013 RMK A01 T01530111  RH  076%=      5-min Rain = 0
KCO1 100118Z 05004KT 15/11 A3013 RMK A01 T01520111  RH  076%=      5-min Rain = 0
KCO1 100119Z 05004KT 15/11 A3014 RMK A01 T01530110  RH  076%=      5-min Rain = 0
KCO1 100120Z 05004KT 15/11 A3014 RMK A01 T01530110  RH  075%=      5-min Rain = 0
KCO1 100121Z 05004KT 15/11 A3014 RMK A01 T01540110  RH  075%=      5-min Rain = 0
KCO1 100122Z 05004KT 15/11 A3014 RMK A01 T01540110  RH  075%=      5-min Rain = 0
KCO1 100123Z 05004KT 15/11 A3014 RMK A01 T01540111  RH  075%=      5-min Rain = 0
KCO1 100124Z 05004KT 15/11 A3014 RMK A01 T01540111  RH  075%=      5-min Rain = 0
KCO1 100125Z 05004KT 15/11 A3014 RMK A01 T01530111  RH  076%=      5-min Rain = 0
KCO1 100126Z 05004KT 15/11 A3014 RMK A01 T01530110  RH  076%=      5-min Rain = 0
KCO1 100127Z 05004KT 15/11 A3014 RMK A01 T01530111  RH  076%=      5-min Rain = 0
KCO1 100128Z 05004KT 15/11 A3014 RMK A01 T01530111  RH  076%=      5-min Rain = 0
KCO1 100129Z 05004KT 15/11 A3014 RMK A01 T01520111  RH  076%=      5-min Rain = 0
KCO1 100130Z 05004KT 15/11 A3014 RMK A01 T01510111  RH  077%=      5-min Rain = 0
KCO1 100131Z 05004KT 15/11 A3014 RMK A01 T01510111  RH  077%=      5-min Rain = 0
KCO1 100132Z 06004KT 15/11 A3014 RMK A01 T01500111  RH  077%=      5-min Rain = 0
KCO1 100133Z 06004KT 15/11 A3014 RMK A01 T01500111  RH  077%=      5-min Rain = 0
KCO1 100134Z 06004KT 15/11 A3014 RMK A01 T01500110  RH  077%=      5-min Rain = 0
KCO1 100135Z 06004KT 15/11 A3014 RMK A01 T01500110  RH  077%=      5-min Rain = 0
KCO1 100136Z 06004KT 15/11 A3014 RMK A01 T01510110  RH  076%=      5-min Rain = 0
KCO1 100137Z 06004KT 15/11 A3014 RMK A01 T01510110  RH  076%=      5-min Rain = 0
KCO1 100138Z 06005KT 15/11 A3014 RMK A01 T01520109  RH  076%=      5-min Rain = 0
KCO1 100139Z 06005KT 15/11 A3014 RMK A01 T01530109  RH  075%=      5-min Rain = 0
KCO1 100140Z 06005KT 15/11 A3014 RMK A01 T01530109  RH  075%=      5-min Rain = 0
KCO1 100141Z 06005KT 15/11 A3013 RMK A01 T01540109  RH  075%=      5-min Rain = 0
KCO1 100142Z 06005KT 15/11 A3013 RMK A01 T01530109  RH  075%=      5-min Rain = 0
KCO1 100143Z 06005KT 15/11 A3013 RMK A01 T01530109  RH  075%=      5-min Rain = 0
KCO1 100144Z 07005KT 15/11 A3013 RMK A01 T01530109  RH  075%=      5-min Rain = 0
KCO1 100145Z 07005KT 15/11 A3013 RMK A01 T01530109  RH  075%=      5-min Rain = 0
KCO1 100146Z 07005KT 15/11 A3013 RMK A01 T01530109  RH  075%=      5-min Rain = 0
KCO1 100147Z 06005KT 15/11 A3013 RMK A01 T01530109  RH  075%=      5-min Rain = 0
KCO1 100148Z 07005KT 15/11 A3013 RMK A01 T01530109  RH  075%=      5-min Rain = 0
KCO1 100149Z 07005KT 15/11 A3013 RMK A01 T01530109  RH  075%=      5-min Rain = 0
KCO1 100150Z 06005KT 15/11 A3013 RMK A01 T01530109  RH  075%=      5-min Rain = 0
KCO1 100151Z 07004KT 15/11 A3013 RMK A01 T01530109  RH  075%=      5-min Rain = 0
KCO1 100152Z 07004KT 15/11 A3013 RMK A01 T01540109  RH  075%=      5-min Rain = 0
KCO1 100153Z 06004KT 15/11 A3013 RMK A01 T01530109  RH  075%=      5-min Rain = 0
KCO1 100154Z 07004KT 15/11 A3014 RMK A01 T01540109  RH  075%=      5-min Rain = 0
KCO1 100155Z 07004KT 15/11 A3014 RMK A01 T01530109  RH  075%=      5-min Rain = 0
KCO1 100156Z 07004KT 15/11 A3014 RMK A01 T01540109  RH  075%=      5-min Rain = 0
KCO1 100157Z 07004KT 15/11 A3013 RMK A01 T01530109  RH  075%=      5-min Rain = 0
KCO1 100158Z 07004KT 15/11 A3013 RMK A01 T01530109  RH  075%=      5-min Rain = 0
KCO1 100159Z 07004KT 15/11 A3013 RMK A01 T01530108  RH  075%=      5-min Rain = 0
KCO1 100200Z 07004KT 15/11 A3013 RMK A01 T01530109  RH  075%=      5-min Rain = 0
KCO1 100201Z 07004KT 15/11 A3013 RMK A01 T01530109  RH  075%=      5-min Rain = 0
KCO1 100202Z 07004KT 15/11 A3013 RMK A01 T01520108  RH  075%=      5-min Rain = 0
KCO1 100203Z 07004KT 15/11 A3013 RMK A01 T01510108  RH  075%=      5-min Rain = 0
KCO1 100204Z 07004KT 15/11 A3013 RMK A01 T01510108  RH  076%=      5-min Rain = 0
KCO1 100205Z 07004KT 15/11 A3013 RMK A01 T01510108  RH  076%=      5-min Rain = 0
KCO1 100206Z 07004KT 15/11 A3013 RMK A01 T01500109  RH  076%=      5-min Rain = 0
KCO1 100207Z 07005KT 15/11 A3013 RMK A01 T01500109  RH  076%=      5-min Rain = 0
KCO1 100208Z 07005KT 15/11 A3013 RMK A01 T01500109  RH  076%=      5-min Rain = 0
KCO1 100209Z 07004KT 15/11 A3013 RMK A01 T01490109  RH  076%=      5-min Rain = 0
KCO1 100210Z 07005KT 15/11 A3013 RMK A01 T01490109  RH  077%=      5-min Rain = 0
KCO1 100211Z 07004KT 15/11 A3013 RMK A01 T01490109  RH  077%=      5-min Rain = 0
KCO1 100212Z 07005KT 15/11 A3013 RMK A01 T01480109  RH  077%=      5-min Rain = 0
KCO1 100213Z 07005KT 15/11 A3013 RMK A01 T01490109  RH  077%=      5-min Rain = 0
KCO1 100214Z 07005KT 15/11 A3013 RMK A01 T01480109  RH  077%=      5-min Rain = 0
KCO1 100215Z 07005KT 15/11 A3013 RMK A01 T01480109  RH  077%=      5-min Rain = 0
KCO1 100216Z 07005KT 15/11 A3013 RMK A01 T01480108  RH  077%=      5-min Rain = 0
KCO1 100217Z 07004KT 15/11 A3013 RMK A01 T01480108  RH  077%=      5-min Rain = 0
KCO1 100218Z 07004KT 15/11 A3013 RMK A01 T01480109  RH  077%=      5-min Rain = 0
KCO1 100219Z 08004KT 15/11 A3013 RMK A01 T01470108  RH  077%=      5-min Rain = 0
KCO1 100220Z 07004KT 15/11 A3013 RMK A01 T01470108  RH  078%=      5-min Rain = 0
KCO1 100221Z 07004KT 15/11 A3013 RMK A01 T01470109  RH  078%=      5-min Rain = 0
KCO1 100222Z 07004KT 15/11 A3013 RMK A01 T01470108  RH  078%=      5-min Rain = 0
KCO1 100223Z 07004KT 15/11 A3013 RMK A01 T01470109  RH  078%=      5-min Rain = 0
KCO1 100224Z 07004KT 15/11 A3013 RMK A01 T01460108  RH  078%=      5-min Rain = 0
KCO1 100225Z 06004KT 15/11 A3013 RMK A01 T01460109  RH  078%=      5-min Rain = 0
KCO1 100226Z 06004KT 15/11 A3013 RMK A01 T01460109  RH  078%=      5-min Rain = 0
KCO1 100227Z 06005KT 15/11 A3013 RMK A01 T01460109  RH  078%=      5-min Rain = 0
KCO1 100228Z 07004KT 15/11 A3013 RMK A01 T01460109  RH  078%=      5-min Rain = 0
KCO1 100229Z 07005KT 15/11 A3013 RMK A01 T01460109  RH  078%=      5-min Rain = 0
KCO1 100230Z 07004KT 15/11 A3013 RMK A01 T01460109  RH  078%=      5-min Rain = 0
KCO1 100231Z 07004KT 15/11 A3013 RMK A01 T01460109  RH  078%=      5-min Rain = 0
KCO1 100232Z 07004KT 15/11 A3013 RMK A01 T01460109  RH  078%=      5-min Rain = 0
KCO1 100233Z 07004KT 15/11 A3013 RMK A01 T01460109  RH  078%=      5-min Rain = 0
KCO1 100234Z 06004KT 15/11 A3013 RMK A01 T01460109  RH  078%=      5-min Rain = 0
KCO1 100235Z 06004KT 15/11 A3013 RMK A01 T01470109  RH  078%=      5-min Rain = 0
KCO1 100236Z 06004KT 15/11 A3013 RMK A01 T01470109  RH  078%=      5-min Rain = 0
KCO1 100237Z 07004KT 15/11 A3013 RMK A01 T01480109  RH  078%=      5-min Rain = 0
KCO1 100238Z 07004KT 15/11 A3013 RMK A01 T01480109  RH  078%=      5-min Rain = 0
KCO1 100239Z 06004KT 15/11 A3013 RMK A01 T01470109  RH  078%=      5-min Rain = 0
KCO1 100240Z 07004KT 15/11 A3013 RMK A01 T01470109  RH  078%=      5-min Rain = 0
KCO1 100241Z 07004KT 15/11 A3013 RMK A01 T01470109  RH  078%=      5-min Rain = 0
KCO1 100242Z 07004KT 15/11 A3013 RMK A01 T01470109  RH  078%=      5-min Rain = 0
KCO1 100243Z 07004KT 15/11 A3013 RMK A01 T01470109  RH  078%=      5-min Rain = 0
KCO1 100244Z 07004KT 15/11 A3013 RMK A01 T01460109  RH  078%=      5-min Rain = 0
KCO1 100245Z 07004KT 15/11 A3013 RMK A01 T01470109  RH  078%=      5-min Rain = 0
KCO1 100246Z 07004KT 15/11 A3013 RMK A01 T01460109  RH  078%=      5-min Rain = 0
KCO1 100247Z 06004KT 15/11 A3013 RMK A01 T01460109  RH  078%=      5-min Rain = 0
KCO1 100248Z 06004KT 15/11 A3013 RMK A01 T01460109  RH  078%=      5-min Rain = 0
KCO1 100249Z 06004KT 15/11 A3013 RMK A01 T01460109  RH  078%=      5-min Rain = 0
KCO1 100250Z 06004KT 15/11 A3013 RMK A01 T01460109  RH  078%=      5-min Rain = 0
KCO1 100251Z 06004KT 15/11 A3013 RMK A01 T01460109  RH  079%=      5-min Rain = 0
KCO1 100252Z 06004KT 15/11 A3013 RMK A01 T01460110  RH  079%=      5-min Rain = 0
KCO1 100253Z 06004KT 15/11 A3013 RMK A01 T01460109  RH  079%=      5-min Rain = 0
KCO1 100254Z 06004KT 15/11 A3013 RMK A01 T01460109  RH  079%=      5-min Rain = 0
KCO1 100255Z 06004KT 15/11 A3013 RMK A01 T01460109  RH  078%=      5-min Rain = 0
KCO1 100256Z 06004KT 15/11 A3013 RMK A01 T01460109  RH  078%=      5-min Rain = 0
KCO1 100257Z 06005KT 15/11 A3013 RMK A01 T01460109  RH  078%=      5-min Rain = 0
KCO1 100258Z 06005KT 15/11 A3013 RMK A01 T01460108  RH  078%=      5-min Rain = 0
KCO1 100259Z 06005KT 15/11 A3013 RMK A01 T01460109  RH  078%=      5-min Rain = 0
KCO1 100300Z 06005KT 15/11 A3013 RMK A01 T01460109  RH  078%=      5-min Rain = 0
KCO1 100301Z 06006KT 15/11 A3013 RMK A01 T01460109  RH  078%=      5-min Rain = 0
KCO1 100302Z 06006KT 15/11 A3013 RMK A01 T01460109  RH  078%=      5-min Rain = 0
KCO1 100303Z 06006KT 15/11 A3013 RMK A01 T01460109  RH  078%=      5-min Rain = 0
KCO1 100304Z 07006KT 15/11 A3013 RMK A01 T01460110  RH  079%=      5-min Rain = 0
KCO1 100305Z 06005KT 15/11 A3013 RMK A01 T01460110  RH  079%=      5-min Rain = 0
KCO1 100306Z 06005KT 15/11 A3013 RMK A01 T01460110  RH  079%=      5-min Rain = 0
KCO1 100307Z 06005KT 15/11 A3013 RMK A01 T01460110  RH  079%=      5-min Rain = 0
KCO1 100308Z 06005KT 15/11 A3013 RMK A01 T01460110  RH  079%=      5-min Rain = 0
KCO1 100309Z 06005KT 15/11 A3013 RMK A01 T01460110  RH  079%=      5-min Rain = 0
KCO1 100310Z 06005KT 15/11 A3013 RMK A01 T01460109  RH  079%=      5-min Rain = 0
KCO1 100311Z 06005KT 15/11 A3013 RMK A01 T01460110  RH  079%=      5-min Rain = 0
KCO1 100312Z 06005KT 15/11 A3013 RMK A01 T01450109  RH  079%=      5-min Rain = 0
KCO1 100313Z 06005KT 15/11 A3013 RMK A01 T01450110  RH  079%=      5-min Rain = 0
KCO1 100314Z 06005KT 15/11 A3013 RMK A01 T01450109  RH  079%=      5-min Rain = 0
KCO1 100315Z 05005KT 14/11 A3013 RMK A01 T01440109  RH  080%=      5-min Rain = 0
KCO1 100316Z 06006KT 14/11 A3013 RMK A01 T01440109  RH  080%=      5-min Rain = 0
KCO1 100317Z 06005KT 14/11 A3013 RMK A01 T01430109  RH  080%=      5-min Rain = 0
KCO1 100318Z 06006KT 14/11 A3013 RMK A01 T01420109  RH  080%=      5-min Rain = 0
KCO1 100319Z 06005KT 14/11 A3013 RMK A01 T01420109  RH  081%=      5-min Rain = 0
KCO1 100320Z 06005KT 14/11 A3013 RMK A01 T01420109  RH  081%=      5-min Rain = 0
KCO1 100321Z 06005KT 14/11 A3013 RMK A01 T01420109  RH  081%=      5-min Rain = 0
KCO1 100322Z 06006KT 14/11 A3013 RMK A01 T01420110  RH  081%=      5-min Rain = 0
KCO1 100323Z 06006KT 14/11 A3013 RMK A01 T01420109  RH  081%=      5-min Rain = 0
KCO1 100324Z 07006KT 14/11 A3013 RMK A01 T01420110  RH  081%=      5-min Rain = 0
KCO1 100325Z 06006KT 14/11 A3013 RMK A01 T01420109  RH  081%=      5-min Rain = 0
KCO1 100326Z 06006KT 14/11 A3013 RMK A01 T01420110  RH  081%=      5-min Rain = 0
KCO1 100327Z 07005KT 14/11 A3013 RMK A01 T01420110  RH  081%=      5-min Rain = 0
KCO1 100328Z 07004KT 14/11 A3013 RMK A01 T01420110  RH  081%=      5-min Rain = 0
KCO1 100329Z 07005KT 14/11 A3013 RMK A01 T01420110  RH  081%=      5-min Rain = 0
KCO1 100330Z 07005KT 14/11 A3013 RMK A01 T01420110  RH  081%=      5-min Rain = 0
KCO1 100331Z 07005KT 14/11 A3013 RMK A01 T01420110  RH  081%=      5-min Rain = 0
KCO1 100332Z 07005KT 14/11 A3013 RMK A01 T01430111  RH  081%=      5-min Rain = 0
KCO1 100333Z 06004KT 14/11 A3013 RMK A01 T01430111  RH  081%=      5-min Rain = 0
KCO1 100334Z 07005KT 14/11 A3013 RMK A01 T01420111  RH  081%=      5-min Rain = 0
KCO1 100335Z 07004KT 14/11 A3013 RMK A01 T01420110  RH  081%=      5-min Rain = 0
KCO1 100336Z 07005KT 14/11 A3013 RMK A01 T01410110  RH  082%=      5-min Rain = 0
KCO1 100337Z 07004KT 14/11 A3013 RMK A01 T01410110  RH  082%=      5-min Rain = 0
KCO1 100338Z 07004KT 14/11 A3013 RMK A01 T01410110  RH  082%=      5-min Rain = 0
KCO1 100339Z 07005KT 14/11 A3013 RMK A01 T01400110  RH  082%=      5-min Rain = 0
KCO1 100340Z 07005KT 14/11 A3013 RMK A01 T01390110  RH  082%=      5-min Rain = 0
KCO1 100341Z 07005KT 14/11 A3013 RMK A01 T01390110  RH  082%=      5-min Rain = 0
KCO1 100342Z 07005KT 14/11 A3013 RMK A01 T01390110  RH  083%=      5-min Rain = 0
KCO1 100343Z 07005KT 14/11 A3013 RMK A01 T01390110  RH  083%=      5-min Rain = 0
KCO1 100344Z 07005KT 14/11 A3013 RMK A01 T01380110  RH  083%=      5-min Rain = 0
KCO1 100345Z 07005KT 14/11 A3013 RMK A01 T01380110  RH  083%=      5-min Rain = 0
KCO1 100346Z 07005KT 14/11 A3013 RMK A01 T01380110  RH  083%=      5-min Rain = 0
KCO1 100347Z 07005KT 14/11 A3013 RMK A01 T01380110  RH  083%=      5-min Rain = 0
KCO1 100348Z 07005KT 14/11 A3013 RMK A01 T01380110  RH  083%=      5-min Rain = 0
KCO1 100349Z 07005KT 14/11 A3013 RMK A01 T01380110  RH  084%=      5-min Rain = 0
KCO1 100350Z 08005KT 14/11 A3013 RMK A01 T01370110  RH  084%=      5-min Rain = 0
KCO1 100351Z 08005KT 14/11 A3013 RMK A01 T01370110  RH  084%=      5-min Rain = 0
KCO1 100352Z 08005KT 14/11 A3013 RMK A01 T01370110  RH  084%=      5-min Rain = 0
KCO1 100353Z 09004KT 14/11 A3013 RMK A01 T01360109  RH  084%=      5-min Rain = 0
KCO1 100354Z 08004KT 14/11 A3013 RMK A01 T01360109  RH  084%=      5-min Rain = 0
KCO1 100355Z 08005KT 14/11 A3013 RMK A01 T01350109  RH  084%=      5-min Rain = 0
KCO1 100356Z 09004KT 14/11 A3013 RMK A01 T01350109  RH  084%=      5-min Rain = 0
KCO1 100357Z 09005KT 13/11 A3013 RMK A01 T01340109  RH  085%=      5-min Rain = 0
KCO1 100358Z 09005KT 13/11 A3013 RMK A01 T01340109  RH  085%=      5-min Rain = 0
KCO1 100359Z 09005KT 13/11 A3013 RMK A01 T01340109  RH  085%=      5-min Rain = 0
KCO1 100400Z 09006KT 13/11 A3013 RMK A01 T01330109  RH  085%=      5-min Rain = 0
KCO1 100401Z 09006KT 13/11 A3013 RMK A01 T01330110  RH  086%=      5-min Rain = 0
KCO1 100402Z 09006KT 13/11 A3012 RMK A01 T01330110  RH  086%=      5-min Rain = 0
KCO1 100403Z 09006KT 13/11 A3012 RMK A01 T01340111  RH  086%=      5-min Rain = 0
KCO1 100404Z 09006KT 13/11 A3012 RMK A01 T01340111  RH  086%=      5-min Rain = 0
KCO1 100405Z 09006KT 13/11 A3012 RMK A01 T01340111  RH  086%=      5-min Rain = 0
KCO1 100406Z 09006KT 14/11 A3012 RMK A01 T01350111  RH  086%=      5-min Rain = 0
KCO1 100407Z 09006KT 14/11 A3012 RMK A01 T01350111  RH  085%=      5-min Rain = 0
KCO1 100408Z 10006KT 14/11 A3012 RMK A01 T01360111  RH  085%=      5-min Rain = 0
KCO1 100409Z 09006KT 14/11 A3012 RMK A01 T01350111  RH  085%=      5-min Rain = 0
KCO1 100410Z 09006KT 14/11 A3013 RMK A01 T01350111  RH  085%=      5-min Rain = 0
KCO1 100411Z 10006KT 14/11 A3013 RMK A01 T01350111  RH  085%=      5-min Rain = 0
KCO1 100412Z 10006KT 14/11 A3013 RMK A01 T01350111  RH  085%=      5-min Rain = 0
KCO1 100413Z 10007KT 14/11 A3013 RMK A01 T01350111  RH  085%=      5-min Rain = 0
KCO1 100414Z 10006KT 14/11 A3013 RMK A01 T01350111  RH  085%=      5-min Rain = 0
KCO1 100415Z 09006KT 14/11 A3013 RMK A01 T01350111  RH  085%=      5-min Rain = 0
KCO1 100416Z 09006KT 14/11 A3013 RMK A01 T01350111  RH  085%=      5-min Rain = 0
KCO1 100417Z 09006KT 14/11 A3013 RMK A01 T01350111  RH  085%=      5-min Rain = 0
KCO1 100418Z 09006KT 14/11 A3013 RMK A01 T01350111  RH  085%=      5-min Rain = 0
KCO1 100419Z 09006KT 14/11 A3013 RMK A01 T01350111  RH  085%=      5-min Rain = 0
KCO1 100420Z 08006KT 14/11 A3013 RMK A01 T01350111  RH  085%=      5-min Rain = 0
KCO1 100421Z 08005KT 14/11 A3013 RMK A01 T01350111  RH  085%=      5-min Rain = 0
KCO1 100422Z 08006KT 14/11 A3013 RMK A01 T01360111  RH  085%=      5-min Rain = 0
KCO1 100423Z 08006KT 14/11 A3013 RMK A01 T01360111  RH  085%=      5-min Rain = 0
KCO1 100424Z 08005KT 14/11 A3013 RMK A01 T01350110  RH  085%=      5-min Rain = 0
KCO1 100425Z 08005KT 14/11 A3013 RMK A01 T01350110  RH  085%=      5-min Rain = 0
KCO1 100426Z 08005KT 13/11 A3013 RMK A01 T01340110  RH  085%=      5-min Rain = 0
KCO1 100427Z 08005KT 13/11 A3013 RMK A01 T01340110  RH  085%=      5-min Rain = 0
KCO1 100428Z 08006KT 13/11 A3013 RMK A01 T01340110  RH  085%=      5-min Rain = 0
KCO1 100429Z 08005KT 13/11 A3013 RMK A01 T01340110  RH  086%=      5-min Rain = 0
KCO1 100430Z 08005KT 13/11 A3013 RMK A01 T01330110  RH  086%=      5-min Rain = 0
KCO1 100431Z 08005KT 13/11 A3013 RMK A01 T01330110  RH  086%=      5-min Rain = 0
KCO1 100432Z 08005KT 13/11 A3013 RMK A01 T01330110  RH  086%=      5-min Rain = 0
KCO1 100433Z 08005KT 13/11 A3013 RMK A01 T01330110  RH  086%=      5-min Rain = 0
KCO1 100434Z 08005KT 13/11 A3013 RMK A01 T01330110  RH  086%=      5-min Rain = 0
KCO1 100435Z 08005KT 13/11 A3013 RMK A01 T01330110  RH  086%=      5-min Rain = 0
KCO1 100436Z 09005KT 13/11 A3013 RMK A01 T01330110  RH  086%=      5-min Rain = 0
KCO1 100437Z 09004KT 13/11 A3013 RMK A01 T01320110  RH  086%=      5-min Rain = 0
KCO1 100438Z 09004KT 13/11 A3013 RMK A01 T01320110  RH  086%=      5-min Rain = 0
KCO1 100439Z 09004KT 13/11 A3013 RMK A01 T01320110  RH  086%=      5-min Rain = 0
KCO1 100440Z 09005KT 13/11 A3013 RMK A01 T01320110  RH  087%=      5-min Rain = 0
KCO1 100441Z 09005KT 13/11 A3013 RMK A01 T01310109  RH  087%=      5-min Rain = 0
KCO1 100442Z 08004KT 13/11 A3013 RMK A01 T01310109  RH  087%=      5-min Rain = 0
KCO1 100443Z 08004KT 13/11 A3013 RMK A01 T01310109  RH  087%=      5-min Rain = 0
KCO1 100444Z 09004KT 13/11 A3013 RMK A01 T01300109  RH  087%=      5-min Rain = 0
KCO1 100445Z 09004KT 13/11 A3013 RMK A01 T01300109  RH  087%=      5-min Rain = 0
KCO1 100446Z 09004KT 13/11 A3013 RMK A01 T01300109  RH  087%=      5-min Rain = 0
KCO1 100447Z 09004KT 13/11 A3013 RMK A01 T01300109  RH  087%=      5-min Rain = 0
KCO1 100448Z 09004KT 13/11 A3013 RMK A01 T01300109  RH  087%=      5-min Rain = 0
KCO1 100449Z 09005KT 13/11 A3013 RMK A01 T01290109  RH  087%=      5-min Rain = 0
KCO1 100450Z 09004KT 13/11 A3013 RMK A01 T01290109  RH  087%=      5-min Rain = 0
KCO1 100451Z 09005KT 13/11 A3013 RMK A01 T01290109  RH  088%=      5-min Rain = 0
KCO1 100452Z 09005KT 13/11 A3013 RMK A01 T01290109  RH  088%=      5-min Rain = 0
KCO1 100453Z 09005KT 13/11 A3013 RMK A01 T01290109  RH  088%=      5-min Rain = 0
KCO1 100454Z 09005KT 13/11 A3013 RMK A01 T01280109  RH  088%=      5-min Rain = 0
KCO1 100455Z 09005KT 13/11 A3013 RMK A01 T01280109  RH  088%=      5-min Rain = 0
KCO1 100456Z 09005KT 13/11 A3013 RMK A01 T01280108  RH  088%=      5-min Rain = 0
KCO1 100457Z 09005KT 13/11 A3013 RMK A01 T01270108  RH  088%=      5-min Rain = 0
KCO1 100458Z 09005KT 13/11 A3013 RMK A01 T01270109  RH  088%=      5-min Rain = 0
KCO1 100459Z 09005KT 13/11 A3012 RMK A01 T01270108  RH  089%=      5-min Rain = 0
KCO1 100500Z 09005KT 13/11 A3012 RMK A01 T01260108  RH  089%=      5-min Rain = 0
KCO1 100501Z 10005KT 13/11 A3012 RMK A01 T01260108  RH  089%=      5-min Rain = 0
KCO1 100502Z 10005KT 13/11 A3012 RMK A01 T01260108  RH  089%=      5-min Rain = 0
KCO1 100503Z 09005KT 13/11 A3012 RMK A01 T01250108  RH  089%=      5-min Rain = 0
KCO1 100504Z 09006KT 13/11 A3012 RMK A01 T01250107  RH  089%=      5-min Rain = 0
KCO1 100505Z 09005KT 13/11 A3012 RMK A01 T01250107  RH  089%=      5-min Rain = 0
KCO1 100506Z 10005KT 12/11 A3012 RMK A01 T01240108  RH  089%=      5-min Rain = 0
KCO1 100507Z 10005KT 12/11 A3012 RMK A01 T01240107  RH  090%=      5-min Rain = 0
KCO1 100508Z 09005KT 12/11 A3012 RMK A01 T01240107  RH  090%=      5-min Rain = 0
KCO1 100509Z 10005KT 12/11 A3012 RMK A01 T01240108  RH  090%=      5-min Rain = 0
KCO1 100510Z 10005KT 12/11 A3012 RMK A01 T01230107  RH  090%=      5-min Rain = 0
KCO1 100511Z 10004KT 12/11 A3012 RMK A01 T01230107  RH  090%=      5-min Rain = 0
KCO1 100512Z 10004KT 12/11 A3012 RMK A01 T01230108  RH  090%=      5-min Rain = 0
KCO1 100513Z 09004KT 12/11 A3012 RMK A01 T01230108  RH  090%=      5-min Rain = 0
KCO1 100514Z 09004KT 12/11 A3012 RMK A01 T01220107  RH  090%=      5-min Rain = 0
KCO1 100515Z 09004KT 12/11 A3012 RMK A01 T01230107  RH  091%=      5-min Rain = 0
KCO1 100516Z 09004KT 12/11 A3012 RMK A01 T01220107  RH  091%=      5-min Rain = 0
KCO1 100517Z 08004KT 12/11 A3012 RMK A01 T01220107  RH  091%=      5-min Rain = 0
KCO1 100518Z 08004KT 12/11 A3012 RMK A01 T01220107  RH  091%=      5-min Rain = 0
KCO1 100519Z 08004KT 12/11 A3012 RMK A01 T01220107  RH  091%=      5-min Rain = 0
KCO1 100520Z 08004KT 12/11 A3012 RMK A01 T01210107  RH  091%=      5-min Rain = 0
KCO1 100521Z 09004KT 12/11 A3012 RMK A01 T01210107  RH  091%=      5-min Rain = 0
KCO1 100522Z 09004KT 12/11 A3012 RMK A01 T01210107  RH  091%=      5-min Rain = 0
KCO1 100523Z 09004KT 12/11 A3012 RMK A01 T01210107  RH  091%=      5-min Rain = 0
KCO1 100524Z 09005KT 12/11 A3012 RMK A01 T01210107  RH  091%=      5-min Rain = 0
KCO1 100525Z 09005KT 12/11 A3012 RMK A01 T01200106  RH  091%=      5-min Rain = 0
KCO1 100526Z 09005KT 12/11 A3012 RMK A01 T01200106  RH  091%=      5-min Rain = 0
KCO1 100527Z 09005KT 12/11 A3012 RMK A01 T01200106  RH  091%=      5-min Rain = 0
KCO1 100528Z 09005KT 12/11 A3012 RMK A01 T01190106  RH  092%=      5-min Rain = 0
KCO1 100529Z 09005KT 12/11 A3012 RMK A01 T01190106  RH  092%=      5-min Rain = 0
KCO1 100530Z 08004KT 12/11 A3012 RMK A01 T01190107  RH  092%=      5-min Rain = 0
KCO1 100531Z 08004KT 12/11 A3012 RMK A01 T01190107  RH  092%=      5-min Rain = 0
KCO1 100532Z 08004KT 12/11 A3012 RMK A01 T01200107  RH  092%=      5-min Rain = 0
KCO1 100533Z 08004KT 12/11 A3012 RMK A01 T01200107  RH  092%=      5-min Rain = 0
KCO1 100534Z 07003KT 12/11 A3012 RMK A01 T01200107  RH  092%=      5-min Rain = 0
KCO1 100535Z 07003KT 12/11 A3012 RMK A01 T01190107  RH  092%=      5-min Rain = 0
KCO1 100536Z 07003KT 12/11 A3012 RMK A01 T01190107  RH  092%=      5-min Rain = 0
KCO1 100537Z 08004KT 12/11 A3012 RMK A01 T01190107  RH  092%=      5-min Rain = 0
KCO1 100538Z 08004KT 12/11 A3012 RMK A01 T01190107  RH  092%=      5-min Rain = 0
KCO1 100539Z 08004KT 12/11 A3012 RMK A01 T01190106  RH  092%=      5-min Rain = 0
KCO1 100540Z 08004KT 12/11 A3012 RMK A01 T01190107  RH  092%=      5-min Rain = 0
KCO1 100541Z 08004KT 12/11 A3012 RMK A01 T01190107  RH  092%=      5-min Rain = 0
KCO1 100542Z 07004KT 12/11 A3012 RMK A01 T01180106  RH  092%=      5-min Rain = 0
KCO1 100543Z 07004KT 12/11 A3012 RMK A01 T01180106  RH  092%=      5-min Rain = 0
KCO1 100544Z 07004KT 12/11 A3012 RMK A01 T01180106  RH  092%=      5-min Rain = 0
KCO1 100545Z 07004KT 12/11 A3012 RMK A01 T01180106  RH  093%=      5-min Rain = 0
KCO1 100546Z 07004KT 12/11 A3012 RMK A01 T01180107  RH  093%=      5-min Rain = 0
KCO1 100547Z 07004KT 12/11 A3011 RMK A01 T01180107  RH  093%=      5-min Rain = 0
KCO1 100548Z 08005KT 12/11 A3011 RMK A01 T01180107  RH  093%=      5-min Rain = 0
KCO1 100549Z 08005KT 12/11 A3011 RMK A01 T01170106  RH  093%=      5-min Rain = 0
KCO1 100550Z 08005KT 12/11 A3011 RMK A01 T01180107  RH  093%=      5-min Rain = 0
KCO1 100551Z 09005KT 12/11 A3011 RMK A01 T01170106  RH  093%=      5-min Rain = 0
KCO1 100552Z 09005KT 12/11 A3011 RMK A01 T01170106  RH  093%=      5-min Rain = 0
KCO1 100553Z 09005KT 12/11 A3011 RMK A01 T01170106  RH  093%=      5-min Rain = 0
KCO1 100554Z 09005KT 12/11 A3011 RMK A01 T01170106  RH  093%=      5-min Rain = 0
KCO1 100555Z 09005KT 12/11 A3011 RMK A01 T01170106  RH  093%=      5-min Rain = 0
KCO1 100556Z 10004KT 12/11 A3011 RMK A01 T01160106  RH  093%=      5-min Rain = 0
KCO1 100557Z 10004KT 12/11 A3011 RMK A01 T01170106  RH  093%=      5-min Rain = 0
KCO1 100558Z 10004KT 12/11 A3011 RMK A01 T01160105  RH  093%=      5-min Rain = 0
KCO1 100559Z 10004KT 12/11 A3011 RMK A01 T01160105  RH  093%=      5-min Rain = 0

Page generated in 0.0777 seconds.